IPv6-only Website List

The following sites are only reachable via IPv6.
If you have a legacy connection which is not IPv6 capable, all of the sites below will fail to load.
Due to deficiencies in all current browsers, attempting to load IPv6-only websites from a legacy connection will display a generic error message such as "NXDOMAIN" or "host not found" which gives no clue as to what the problem is.
You can test your connectivity at a variety of sites such as https://ip6.biz a modern connection will show "IPv6: Supported" in green.
If you do not have IPv6 connectivity you should check the configuration of your device and/or router, or contact your ISP.
If you're unfortunate enough to only have legacy connectivity, you may be able to get access to the modern IPv6 Internet by using a service such as Cloudflare Warp, which works by using your out of date local connection to tunnel traffic via Cloudflare servers.
You can also use a website availability check such as https://testmyconnection.net to verify that the below sites are online. Clicking the "test" button next to each site does this automatically.

Note: Sites listed below with neither HTTP nor HTTPS are still IPv6 only, but are used for something other than web hosting.

Address Search: You can search for sites by their IPv6 addresses using wildcards. Use * to match any sequence of characters and ? to match a single character. For example, 2001:db8:* will find all sites with IPv6 addresses starting with "2001:db8:".

Exclude IPv6 Sites: You can exclude sites whose names start with "ipv6." by checking the "Exclude sites starting with 'ipv6.'" option. This is useful for filtering out IPv6-specific subdomains for otherwise dual-stacked sites.

For any queries/comments/feedback on this list, please contact bert [at] v6list [dot] firenzee [dot] com

Clear All

There are a total of 1,090,969 IPv6-only hosts in the database.

Showing 18,559 results for TLD .nl

Site Name HTTP HTTPS Last Checked IPv6 Addresses DNS Lookup Test
http://webdisk.deevenementenfabriek.nl YES NO 2026-04-28 09:37:12 2a03:3b00:1:0:700a:b7ff:fe10:4279 DNS Lookup Test
http://cpanel.deevenementenfabriek.nl YES NO 2026-04-28 09:37:12 2a03:3b00:1:0:700a:b7ff:fe10:4279 DNS Lookup Test
http://webmail.deevenementenfabriek.nl YES NO 2026-04-28 09:37:12 2a03:3b00:1:0:700a:b7ff:fe10:4279 DNS Lookup Test
http://cpanel.dicb.nl YES NO 2026-04-28 09:37:09 2a03:3b00:1:0:700a:b7ff:fe10:6750 DNS Lookup Test
http://cpcontacts.dicb.nl YES NO 2026-04-28 09:37:09 2a03:3b00:1:0:700a:b7ff:fe10:6750 DNS Lookup Test
http://cpcalendars.dicb.nl YES NO 2026-04-28 09:37:09 2a03:3b00:1:0:700a:b7ff:fe10:6750 DNS Lookup Test
http://webmail.dicb.nl YES NO 2026-04-28 09:37:09 2a03:3b00:1:0:700a:b7ff:fe10:6750 DNS Lookup Test
http://webdisk.dicb.nl YES NO 2026-04-28 09:37:09 2a03:3b00:1:0:700a:b7ff:fe10:6750 DNS Lookup Test
http://cpcalendars.cafedestrohoed.nl YES NO 2026-04-28 09:34:05 2a03:3b00:1:0:700a:b7ff:fe10:4279 DNS Lookup Test
http://webmail.cafedestrohoed.nl YES NO 2026-04-28 09:34:05 2a03:3b00:1:0:700a:b7ff:fe10:4279 DNS Lookup Test
http://cpanel.careforhuman.nl YES NO 2026-04-28 09:33:52 2a03:3b00:1:0:700a:b7ff:fe10:4279 DNS Lookup Test
http://webdisk.businessmediamaasenwaal.nl YES NO 2026-04-28 09:31:37 2a03:3b00:1:0:700a:b7ff:fe10:5fbb DNS Lookup Test
http://cpcalendars.businessmediamaasenwaal.nl YES NO 2026-04-28 09:31:37 2a03:3b00:1:0:700a:b7ff:fe10:5fbb DNS Lookup Test
http://webmail.businessmediamaasenwaal.nl YES NO 2026-04-28 09:31:37 2a03:3b00:1:0:700a:b7ff:fe10:5fbb DNS Lookup Test
http://cpanel.businessmediamaasenwaal.nl YES NO 2026-04-28 09:31:37 2a03:3b00:1:0:700a:b7ff:fe10:5fbb DNS Lookup Test
http://cpcontacts.businessmediamaasenwaal.nl YES NO 2026-04-28 09:31:37 2a03:3b00:1:0:700a:b7ff:fe10:5fbb DNS Lookup Test
http://cpanel.dewitprojectsupport.nl YES NO 2026-04-28 09:31:17 2a03:3b00:1:0:700a:b7ff:fe10:3297 DNS Lookup Test
http://cpcalendars.dewitprojectsupport.nl YES NO 2026-04-28 09:31:17 2a03:3b00:1:0:700a:b7ff:fe10:3297 DNS Lookup Test
http://webdisk.dewitprojectsupport.nl YES NO 2026-04-28 09:31:17 2a03:3b00:1:0:700a:b7ff:fe10:3297 DNS Lookup Test
http://webmail.dewitprojectsupport.nl YES NO 2026-04-28 09:31:17 2a03:3b00:1:0:700a:b7ff:fe10:3297 DNS Lookup Test
http://cpcontacts.dewitprojectsupport.nl YES NO 2026-04-28 09:31:17 2a03:3b00:1:0:700a:b7ff:fe10:3297 DNS Lookup Test
http://webdisk.webschot.nl YES NO 2026-04-28 09:29:41 2a03:3b00:1:0:700a:b7ff:fe10:3297 DNS Lookup Test
http://cpcalendars.webschot.nl YES NO 2026-04-28 09:29:41 2a03:3b00:1:0:700a:b7ff:fe10:3297 DNS Lookup Test
http://webmail.webschot.nl YES NO 2026-04-28 09:29:41 2a03:3b00:1:0:700a:b7ff:fe10:3297 DNS Lookup Test
http://cpanel.webschot.nl YES NO 2026-04-28 09:29:41 2a03:3b00:1:0:700a:b7ff:fe10:3297 DNS Lookup Test
http://cpcontacts.webschot.nl YES NO 2026-04-28 09:29:41 2a03:3b00:1:0:700a:b7ff:fe10:3297 DNS Lookup Test
http://webmail.leidsepleintheaters.nl YES NO 2026-04-28 09:24:54 2a03:3b00:1:0:700a:b7ff:fe10:4279 DNS Lookup Test
http://cpcontacts.bijilona.nl YES NO 2026-04-28 09:24:21 2a03:3b00:1:0:700a:b7ff:fe10:4279 DNS Lookup Test
http://cpcalendars.bijilona.nl YES NO 2026-04-28 09:24:21 2a03:3b00:1:0:700a:b7ff:fe10:4279 DNS Lookup Test
http://cpcalendars.bkb-web.nl YES NO 2026-04-28 09:23:11 2a03:3b00:1:0:700a:b7ff:fe10:4279 DNS Lookup Test
http://cpanel.bkb-web.nl YES NO 2026-04-28 09:23:11 2a03:3b00:1:0:700a:b7ff:fe10:4279 DNS Lookup Test
http://webdisk.bkb-web.nl YES NO 2026-04-28 09:23:11 2a03:3b00:1:0:700a:b7ff:fe10:4279 DNS Lookup Test
http://cpcontacts.bkb-web.nl YES NO 2026-04-28 09:23:11 2a03:3b00:1:0:700a:b7ff:fe10:4279 DNS Lookup Test
http://webmail.carpacciofabriek.nl YES NO 2026-04-28 09:23:02 2a03:3b00:1:0:700a:b7ff:fe10:4429 DNS Lookup Test
http://cpcalendars.bgbouwadvies.nl YES NO 2026-04-28 09:19:50 2a03:3b00:1:0:700a:b7ff:fe10:4279 DNS Lookup Test
http://webmail.bgbouwadvies.nl YES NO 2026-04-28 09:19:50 2a03:3b00:1:0:700a:b7ff:fe10:4279 DNS Lookup Test
http://cpcontacts.betaalbaretaarten.nl YES NO 2026-04-28 09:19:08 2a03:3b00:1:0:700a:b7ff:fe10:4279 DNS Lookup Test
http://cpanel.betaalbaretaarten.nl YES NO 2026-04-28 09:19:08 2a03:3b00:1:0:700a:b7ff:fe10:4279 DNS Lookup Test
http://cpcalendars.betaalbaretaarten.nl YES NO 2026-04-28 09:19:08 2a03:3b00:1:0:700a:b7ff:fe10:4279 DNS Lookup Test
http://webdisk.betaalbaretaarten.nl YES NO 2026-04-28 09:19:08 2a03:3b00:1:0:700a:b7ff:fe10:4279 DNS Lookup Test
http://webmail.betaalbaretaarten.nl YES NO 2026-04-28 09:19:08 2a03:3b00:1:0:700a:b7ff:fe10:4279 DNS Lookup Test
http://webdisk.abtswoudsepark.nl YES NO 2026-04-28 09:16:14 2a03:3b00:1:0:700a:b7ff:fe10:20ec DNS Lookup Test
http://cpanel.abtswoudsepark.nl YES NO 2026-04-28 09:16:14 2a03:3b00:1:0:700a:b7ff:fe10:20ec DNS Lookup Test
http://webmail.abtswoudsepark.nl YES NO 2026-04-28 09:16:14 2a03:3b00:1:0:700a:b7ff:fe10:20ec DNS Lookup Test
http://cpcontacts.abtswoudsepark.nl YES NO 2026-04-28 09:16:14 2a03:3b00:1:0:700a:b7ff:fe10:20ec DNS Lookup Test
http://cpcalendars.abtswoudsepark.nl YES NO 2026-04-28 09:16:14 2a03:3b00:1:0:700a:b7ff:fe10:20ec DNS Lookup Test
http://mail.bretech.nl YES NO 2026-04-28 09:11:50 2a03:3b00:1:0:700a:b7ff:fe10:3297 DNS Lookup Test
http://cpanel.guldeling.nl YES NO 2026-04-28 09:11:10 2a03:3b00:1:0:700a:b7ff:fe10:5fbb DNS Lookup Test
http://cpcalendars.guldeling.nl YES NO 2026-04-28 09:11:10 2a03:3b00:1:0:700a:b7ff:fe10:5fbb DNS Lookup Test
http://cpcontacts.guldeling.nl YES NO 2026-04-28 09:11:10 2a03:3b00:1:0:700a:b7ff:fe10:5fbb DNS Lookup Test
http://webmail.guldeling.nl YES NO 2026-04-28 09:11:10 2a03:3b00:1:0:700a:b7ff:fe10:5fbb DNS Lookup Test
http://webdisk.guldeling.nl YES NO 2026-04-28 09:11:10 2a03:3b00:1:0:700a:b7ff:fe10:5fbb DNS Lookup Test
http://cpcontacts.aharef.nl YES NO 2026-04-28 09:10:50 2a03:3b00:1:0:700a:b7ff:fe10:4279 DNS Lookup Test
http://cpcalendars.aharef.nl YES NO 2026-04-28 09:10:50 2a03:3b00:1:0:700a:b7ff:fe10:4279 DNS Lookup Test
http://cpanel.aharef.nl YES NO 2026-04-28 09:10:50 2a03:3b00:1:0:700a:b7ff:fe10:4279 DNS Lookup Test
http://cpcontacts.ingridvandamme.nl YES NO 2026-04-28 09:10:50 2a03:3b00:1:0:700a:b7ff:fe10:4279 DNS Lookup Test
http://webdisk.aharef.nl YES NO 2026-04-28 09:10:50 2a03:3b00:1:0:700a:b7ff:fe10:4279 DNS Lookup Test
http://cpanel.ingridvandamme.nl YES NO 2026-04-28 09:10:50 2a03:3b00:1:0:700a:b7ff:fe10:4279 DNS Lookup Test
http://webmail.aharef.nl YES NO 2026-04-28 09:10:50 2a03:3b00:1:0:700a:b7ff:fe10:4279 DNS Lookup Test
http://cpcalendars.ingridvandamme.nl YES NO 2026-04-28 09:10:50 2a03:3b00:1:0:700a:b7ff:fe10:4279 DNS Lookup Test
http://cpanel.ariez.nl YES NO 2026-04-28 09:08:32 2a03:3b00:1:0:700a:b7ff:fe10:6c75 DNS Lookup Test
http://cpcalendars.ariez.nl YES NO 2026-04-28 09:08:32 2a03:3b00:1:0:700a:b7ff:fe10:6c75 DNS Lookup Test
http://cpcontacts.ariez.nl YES NO 2026-04-28 09:08:32 2a03:3b00:1:0:700a:b7ff:fe10:6c75 DNS Lookup Test
http://webmail.ariez.nl YES NO 2026-04-28 09:08:32 2a03:3b00:1:0:700a:b7ff:fe10:6c75 DNS Lookup Test
http://webmail.advocaatinutrecht.nl YES NO 2026-04-28 09:06:41 2a03:3b00:1:0:700a:b7ff:fe10:4279 DNS Lookup Test
http://cpcontacts.advocaatinutrecht.nl YES NO 2026-04-28 09:06:41 2a03:3b00:1:0:700a:b7ff:fe10:4279 DNS Lookup Test
http://cpcontacts.agrilog.nl YES NO 2026-04-28 09:05:26 2a03:3b00:1:0:700a:b7ff:fe10:4429 DNS Lookup Test
http://cpcalendars.agrilog.nl YES NO 2026-04-28 09:05:26 2a03:3b00:1:0:700a:b7ff:fe10:4429 DNS Lookup Test
http://cpanel.agrilog.nl YES NO 2026-04-28 09:05:26 2a03:3b00:1:0:700a:b7ff:fe10:4429 DNS Lookup Test
http://webmail.agrilog.nl YES NO 2026-04-28 09:05:26 2a03:3b00:1:0:700a:b7ff:fe10:4429 DNS Lookup Test
http://webdisk.agrilog.nl YES NO 2026-04-28 09:05:26 2a03:3b00:1:0:700a:b7ff:fe10:4429 DNS Lookup Test
http://webdisk.allinntegelwerken.nl YES NO 2026-04-28 09:05:00 2a03:3b00:1:0:700a:b7ff:fe10:20ec DNS Lookup Test
http://cpcontacts.allinntegelwerken.nl YES NO 2026-04-28 09:05:00 2a03:3b00:1:0:700a:b7ff:fe10:20ec DNS Lookup Test
http://cpcalendars.allinntegelwerken.nl YES NO 2026-04-28 09:05:00 2a03:3b00:1:0:700a:b7ff:fe10:20ec DNS Lookup Test
http://webmail.allinntegelwerken.nl YES NO 2026-04-28 09:05:00 2a03:3b00:1:0:700a:b7ff:fe10:20ec DNS Lookup Test
http://cpanel.allinntegelwerken.nl YES NO 2026-04-28 09:05:00 2a03:3b00:1:0:700a:b7ff:fe10:20ec DNS Lookup Test
http://ftp.leersurinaams.nlDomeinnaam gereserveerd | mijn.host
YES NO 2026-04-28 08:58:45 2a03:5180:7:2:c62:1f94:826:1 DNS Lookup Test
http://mail.leersurinaams.nlDomeinnaam gereserveerd | mijn.host
YES NO 2026-04-28 08:58:45 2a03:5180:7:2:c62:1f94:826:1 DNS Lookup Test
http://pop.leersurinaams.nlDomeinnaam gereserveerd | mijn.host
YES NO 2026-04-28 08:58:45 2a03:5180:7:2:c62:1f94:826:1 DNS Lookup Test
http://smtp.leersurinaams.nlDomeinnaam gereserveerd | mijn.host
YES NO 2026-04-28 08:58:45 2a03:5180:7:2:c62:1f94:826:1 DNS Lookup Test
http://www.instijltotaalbouw.nl YES NO 2026-04-28 05:07:47 2a01:238:43fd:3600:7cad:4b9d:a8e8:97db DNS Lookup Test
http://mgjc.nl YES NO 2026-04-28 04:00:57 2a02:9e0:9000::5 DNS Lookup Test
YES NO 2026-04-28 03:29:47 2a03:3c00:a002:239::1000 DNS Lookup Test
http://summersault.kamiza.nl NO NO 2026-04-28 03:09:37 2a10:3781:365f:1:211:32ff:fef8:b506 DNS Lookup Test
http://mail.nielsdenolder.nl YES NO 2026-04-28 02:08:11 2a02:40c1:0:8:1c00:2bff:fe00:2fa4 DNS Lookup Test
http://home.midam.nl YES NO 2026-04-28 00:21:20 2a10:3781:5987:1:211:32ff:fe9e:75ea DNS Lookup Test
http://mail.southeuropetrackseries.nl YES NO 2026-04-27 22:07:42 2a02:f640:0:100::153:212 DNS Lookup Test
http://ldap.home.bramvanmensvoort.nl NO NO 2026-04-27 21:53:27 2a0e:fdc1:1201:1000:2dda:69d9:5fad:4c12 DNS Lookup Test
http://ftp.clusterveiligheid.nl YES NO 2026-04-27 21:33:57 2a01:4f8:242:57d2::2 DNS Lookup Test
http://bedrijfsfeestbrabant.nl NO NO 2026-04-27 20:43:46 ::1 DNS Lookup Test
http://arrangementenvalkenswaard.nl NO NO 2026-04-27 20:43:40 ::1 DNS Lookup Test
http://arrangementeneindhoven.nl NO NO 2026-04-27 20:43:36 ::1 DNS Lookup Test
http://bedrijfsfeestvalkenswaard.nl NO NO 2026-04-27 20:43:32 ::1 DNS Lookup Test
http://bedrijfsfeesteindhoven.nl NO NO 2026-04-27 20:43:30 ::1 DNS Lookup Test
http://arrangementenbrabant.nl NO NO 2026-04-27 20:43:29 ::1 DNS Lookup Test
http://de-kruisvereniging.nl.forward.delinie-ict.nl NO NO 2026-04-27 17:03:35 2a00:7c80:0:71::2 DNS Lookup Test
http://pop.stolenbicyclebrewery.nl YES NO 2026-04-27 17:03:09 2a07:ae80:100:0:185:158:167:118 DNS Lookup Test
http://www.kingfisherbiotech.eu.forward.delinie-ict.nl NO NO 2026-04-27 17:01:14 2a00:7c80:0:71::2 DNS Lookup Test
http://mine-slot.com.nl NO NO 2026-04-27 17:01:04 2606:4700:3032::ac43:866b, 2606:4700:3034::6815:19ad DNS Lookup Test
http://webmail.support.delinie-ict.nl NO NO 2026-04-27 17:00:19 2a00:7c80:0:71::2 DNS Lookup Test
http://borg.energy.prod.cubetest.nl YES NO 2026-04-27 16:43:07 2a03:9700:8000:0:48df:7d53:2476:9491 DNS Lookup Test
http://www.rkvwestbrabant.nl.forward.delinie-ict.nl NO NO 2026-04-27 16:28:29 2a00:7c80:0:71::2 DNS Lookup Test
http://s3-cdn.hetbeteremerk.nl NO NO 2026-04-27 16:03:01 2a06:98c1:3105::6812:2ae3, 2606:4700:4405::ac40:911d DNS Lookup Test
YES NO 2026-04-27 13:39:01 2a00:1c98:1000:1091:0:1:27c4:b44e DNS Lookup Test
http://new.pr-minded.nl NO NO 2026-04-27 11:13:11 2a03:3c00:a002:210::1002 DNS Lookup Test
http://ha.nvdc.nl NO NO 2026-04-27 10:37:09 2001:1c03:5a16:6100:f56e:2246:ee0a:b39a DNS Lookup Test
http://pimeter.kweeconsult.nl YES NO 2026-04-27 10:34:30 2a02:a454:9c4d:1:d268:f739:d21e:8407 DNS Lookup Test
http://www.autobedrijfvanderwereld.wereldauto.nl YES NO 2026-04-27 10:20:19 2a02:cc8::102:132 DNS Lookup Test
http://mail.bloghelden.nlDomeinnaam gereserveerd | mijn.host
YES NO 2026-04-27 09:11:00 2a11:4881:1:21ed::1 DNS Lookup Test
http://intelliq.netsense.nl NO NO 2026-04-27 07:26:36 2a10:3781:18cd:1:2:3:4:6 DNS Lookup Test
http://mail.remoerconsulting.nl NO NO 2026-04-27 06:08:17 2a06:2ec0:1::96 DNS Lookup Test
http://kingfisherbiotech.eu.forward.delinie-ict.nl NO NO 2026-04-27 03:10:22 2a00:7c80:0:71::2 DNS Lookup Test
http://fairmaster.nlTransIP - Reserved domain
YES NO 2026-04-27 02:33:40 2a01:7c8:3:1337::27 DNS Lookup Test
http://mail.wdevriesbeveiliging.nl YES NO 2026-04-27 01:32:39 2a06:2ec0:1::102 DNS Lookup Test
YES NO 2026-04-27 01:01:34 2a00:7c80:0:12::2 DNS Lookup Test
http://mail.voluno.nlDomeinnaam gereserveerd | mijn.host
YES NO 2026-04-27 00:15:01 2a03:5180:7:2:4aba:4f16:a7e7:1 DNS Lookup Test
http://forgejo.mumasoft.nl NO NO 2026-04-26 22:51:25 2001:67c:ff4:1::49:1 DNS Lookup Test
http://rollie.nl YES NO 2026-04-26 21:25:03 2a06:98c1:3120::3, 2a06:98c1:3121::3 DNS Lookup Test
http://smtp.stertax.nl YES NO 2026-04-26 20:51:32 2a03:5180:7:2::1:0 DNS Lookup Test
http://home.mijnbubbel.nl NO NO 2026-04-26 18:35:42 2a02:f6d:2321:0:ebb2:77cb:5ed0:c3ee DNS Lookup Test
http://binggle.nl NO NO 2026-04-26 18:24:02 2a01:7c8:aabd:36f:5054:ff:fe6e:8690 DNS Lookup Test
http://zebotec.nl NO NO 2026-04-26 15:12:23 ::1 DNS Lookup Test
http://auth.doeser.nl NO NO 2026-04-26 14:56:19 2a00:6020:41cc:5901:5fe8:cac8:a548:c320 DNS Lookup Test
http://www.nieuw.acr.nl YES NO 2026-04-26 14:18:47 2a0b:3100:20::b1 DNS Lookup Test
http://debuitenruimtespecialist.nl NO NO 2026-04-26 13:05:46 2a02:4600:1::14 DNS Lookup Test
http://wachtwoordkluis.jebentdik.nl NO NO 2026-04-26 12:14:59 2a0d:6e00:1a1b:6::deeb:a747 DNS Lookup Test
http://www.forward.e-schoolkinderopvang.nl YES NO 2026-04-26 11:03:20 2a03:3c00:a002:225::1000 DNS Lookup Test
http://nextcloud2.zohlandt-ict.nl NO NO 2026-04-26 10:58:14 2a00:7c80:0:125::7 DNS Lookup Test
http://cpcalendars.totaallaminaatvloer.nl YES NO 2026-04-26 08:56:31 2a03:3b00:1:0:700a:b7ff:fe10:4516 DNS Lookup Test
http://webdisk.totaallaminaatvloer.nl YES NO 2026-04-26 08:56:31 2a03:3b00:1:0:700a:b7ff:fe10:4516 DNS Lookup Test
http://cpanel.totaallaminaatvloer.nl YES NO 2026-04-26 08:56:31 2a03:3b00:1:0:700a:b7ff:fe10:4516 DNS Lookup Test
http://cpcontacts.totaallaminaatvloer.nl YES NO 2026-04-26 08:56:31 2a03:3b00:1:0:700a:b7ff:fe10:4516 DNS Lookup Test
YES NO 2026-04-26 08:40:09 2a11:4880:0:d3e3::1 DNS Lookup Test
http://camt053.fiba.nlcamt053.fiba.nl
YES NO 2026-04-26 08:40:09 2a11:4880:0:d3e3::1 DNS Lookup Test
http://www.herwheelz.com.forward.delinie-ict.nl NO NO 2026-04-26 08:30:31 2a00:7c80:0:71::2 DNS Lookup Test
http://www.kruisverenigingnederland.nl.forward.delinie-ict.nl NO NO 2026-04-26 07:09:39 2a00:7c80:0:71::2 DNS Lookup Test
http://www.balancebyorganize.nl YES NO 2026-04-26 05:55:22 2a01:448:2001::10 DNS Lookup Test
http://mail4a.i4h.nl NO NO 2026-04-26 04:14:28 fd29:1:1:1::137 DNS Lookup Test
http://smtp.bloeiendelanden.nlDomeinnaam gereserveerd | mijn.host
YES NO 2026-04-26 03:43:28 2a03:5180:7:2:9d:475d:5460:1 DNS Lookup Test
http://mail.bloeiendelanden.nlDomeinnaam gereserveerd | mijn.host
YES NO 2026-04-26 03:43:28 2a03:5180:7:2:9d:475d:5460:1 DNS Lookup Test
http://pop.bloeiendelanden.nlDomeinnaam gereserveerd | mijn.host
YES NO 2026-04-26 03:43:28 2a03:5180:7:2:9d:475d:5460:1 DNS Lookup Test
http://webmail.rienk-sanitair.nl YES NO 2026-04-26 03:29:04 2a03:3b00:1:0:700a:b7ff:fe10:29d5 DNS Lookup Test
http://itcounts.nl NO NO 2026-04-26 03:01:23 2a11:4880:0:3aa2::1 DNS Lookup Test
http://ontw.janvdheyde2.nlwww.ontw.janvdheyde2.nl
YES NO 2026-04-26 02:26:10 2a02:9e0:9000::5 DNS Lookup Test
http://www.kwekerijjohanoudshoorn.nl NO NO 2026-04-25 23:31:18 2a01:7c8:bb0b:3da:5054:ff:fe54:8a DNS Lookup Test
http://gcp.explorgo.nl YES NO 2026-04-25 21:14:25 2001:4860:4802:34::15, 2001:4860:4802:36::15, 2001:4860:4802:38::15, 2001:4860:4802:32::15 DNS Lookup Test
http://www.hollandlures.nl YES NO 2026-04-25 20:14:06 2a00:f10:305:0:1c00:2eff:fe00:4b4 DNS Lookup Test
http://turbotuners.nlOp deze domeinnaam is nog geen website geconfigureerd
YES NO 2026-04-25 19:22:35 2a00:1478:200:0:f:1061:0:1 DNS Lookup Test
http://p.duto.nl NO NO 2026-04-25 18:42:40 fd7a:115c:a1e0:ab12:4843:cd96:6257:8281 DNS Lookup Test
http://www.michielprincen.nl.forward.delinie-ict.nl NO NO 2026-04-25 17:46:01 2a00:7c80:0:71::2 DNS Lookup Test
http://sandermiedema.nl YES NO 2026-04-25 15:11:58 2a01:448:2001::10 DNS Lookup Test
http://www.utstadslijntje.nl.forward.delinie-ict.nl NO NO 2026-04-25 13:41:50 2a00:7c80:0:71::2 DNS Lookup Test
http://www.bbq-feest.nl.forward.delinie-ict.nl NO NO 2026-04-25 10:40:24 2a00:7c80:0:71::2 DNS Lookup Test
http://smtp.bouwenopblauw.nl YES NO 2026-04-25 10:06:57 2a06:2ec0:ded1:1:0:60:782:1 DNS Lookup Test
http://calvin.polyware.nl NO NO 2026-04-25 09:11:01 2a10:3781:5299:80:be24:11ff:fe8a:3bb0 DNS Lookup Test
http://mail.hakri.nl YES NO 2026-04-25 05:39:18 2a03:e0c0:1002:155::2b DNS Lookup Test
http://www.community.taalkrachtig.nl NO NO 2026-04-25 00:47:18 2a03:3c00:a002:182::1002 DNS Lookup Test
http://www.checkout.taalkrachtig.nlcheckout.taalkrachtig.com
YES NO 2026-04-25 00:47:18 2a03:3c00:a002:182::1002 DNS Lookup Test
http://demo.klikonline.nl NO NO 2026-04-25 00:24:18 2a01:4f9:6a:1083::1 DNS Lookup Test
http://nationalekruisvereniging.nl.forward.delinie-ict.nl NO NO 2026-04-25 00:05:04 2a00:7c80:0:71::2 DNS Lookup Test
http://mail.s4h.nl YES NO 2026-04-24 23:00:12 2a00:1708:6c23::162:152 DNS Lookup Test
http://huis.jebentdik.nl NO NO 2026-04-24 22:00:12 2a0d:6e00:1a1b:2:8cca:662a:7776:b837 DNS Lookup Test
http://refurbishedhm.nlDomein gereserveerd – xel
YES NO 2026-04-24 20:12:54 2001:7b8:620:1::d59a:e223 DNS Lookup Test
http://www.baaimanjachtbouw.nl YES NO 2026-04-24 19:00:55 2a01:7860::db:8826:1:1 DNS Lookup Test
http://caddy-client-redirect-test2.nl NO NO 2026-04-24 14:00:21 2a05:1500:704:1:1c00:4fff:fe00:59a1, 2a05:1500:704:1:1c00:2bff:fe00:599e DNS Lookup Test
http://bankchart.nl NO NO 2026-04-24 13:55:25 2a02:a469:50c0:0:9c9e:7a61:4b74:a9ba DNS Lookup Test
http://jellyfin.jebentdik.nl NO NO 2026-04-24 13:03:38 2a0d:6e00:1a1b:2:b00f:b00f:cafe:f00d DNS Lookup Test
http://hello.prd.nic.nl NO NO 2026-04-24 10:49:53 2a05:d024:1c:4200:a4ae:a6d2:9874:91dc, 2a05:d024:1c:4201:c9cc:8c0b:a88:2165, 2a05:d024:1c:4202:3e80:1052:9f5d:3bf6 DNS Lookup Test
http://droplist.prd.nic.nl NO NO 2026-04-24 10:49:48 2a05:d024:1c:4201:db3c:21e3:c9d3:a703, 2a05:d024:1c:4202:134:871:9bcf:46ed, 2a05:d024:1c:4200:8bc4:ed87:7024:cf9f DNS Lookup Test
http://auth.prd.nic.nl NO NO 2026-04-24 10:49:22 2a05:d024:1c:4200:a4ae:a6d2:9874:91dc, 2a05:d024:1c:4202:3e80:1052:9f5d:3bf6, 2a05:d024:1c:4201:c9cc:8c0b:a88:2165 DNS Lookup Test
http://rdap.prd.nic.nl NO NO 2026-04-24 10:49:02 2a05:d024:1c:4201:c9cc:8c0b:a88:2165, 2a05:d024:1c:4202:3e80:1052:9f5d:3bf6, 2a05:d024:1c:4200:a4ae:a6d2:9874:91dc DNS Lookup Test
http://epp.prd.nic.nl NO NO 2026-04-24 10:48:47 2a05:d024:1c:4200:556d:c896:1635:e3a, 2a05:d024:1c:4202:3371:61b1:1a76:2c59, 2a05:d024:1c:4201:b43b:8d6:a497:8838 DNS Lookup Test
http://rcs.prd.nic.nl NO NO 2026-04-24 10:48:43 2a05:d024:1c:4202:3e80:1052:9f5d:3bf6, 2a05:d024:1c:4201:c9cc:8c0b:a88:2165, 2a05:d024:1c:4200:a4ae:a6d2:9874:91dc DNS Lookup Test
http://ceph-rgw-api.bit.nl NO NO 2026-04-24 10:13:34 2001:7b8:300:3:0:2c:1:3, 2001:7b8:300:2:0:2a:1:2, 2001:7b8:300:2:0:2a:1:1, 2001:7b8:300:3:0:2c:1:4, 2001:7b8:300:1:0:1:1:5 DNS Lookup Test
http://account.cleanlane.nl NO NO 2026-04-24 10:11:47 2620:127:f00f:e:: DNS Lookup Test
http://www.lizhorvath.nlLiz Horvath & Friends
YES NO 2026-04-24 07:49:14 2a01:7c8:bb0e:5c::11 DNS Lookup Test
http://www.regionalekruisverenigingmidden-brabant.nl.forward.delinie-ict.nl NO NO 2026-04-24 06:39:46 2a00:7c80:0:71::2 DNS Lookup Test
http://www.coneybox.nl YES NO 2026-04-24 06:20:44 2a06:2ec0:1::101 DNS Lookup Test
http://www.kruisvereniginghalderberge.nl.forward.delinie-ict.nl NO NO 2026-04-24 01:15:03 2a00:7c80:0:71::2 DNS Lookup Test
http://www.kruisvenster.nl.forward.delinie-ict.nl NO NO 2026-04-24 01:15:03 2a00:7c80:0:71::2 DNS Lookup Test
http://help.in2crm.nl NO NO 2026-04-23 23:46:27 2a03:3c00:a002:a9ab::1 DNS Lookup Test
http://nieuw.kunstenkitchen.nl YES NO 2026-04-23 22:34:48 2a0b:7280:100:0:1c00:87ff:fe00:2073 DNS Lookup Test
http://amaze-security.nl NO NO 2026-04-23 21:56:47 2a06:2ec0:1::111 DNS Lookup Test
http://kruismobiel.nl.forward.delinie-ict.nl NO NO 2026-04-23 19:20:43 2a00:7c80:0:71::2 DNS Lookup Test
http://whois.prd.nic.nl NO NO 2026-04-23 17:10:37 2a05:d024:1c:4200:2441:21ec:d709:a1aa, 2a05:d024:1c:4201:5669:17c6:e258:f8b7 DNS Lookup Test
http://www.kruisverenigingmoerdijk.nl.forward.delinie-ict.nl NO NO 2026-04-23 14:56:29 2a00:7c80:0:71::2 DNS Lookup Test
http://mail.puretransport.nl YES NO 2026-04-23 14:21:59 2a02:348:5e6:1::7360 DNS Lookup Test
http://www.kruisverenigingroosendaal.nl.forward.delinie-ict.nl NO NO 2026-04-23 13:40:22 2a00:7c80:0:71::2 DNS Lookup Test
http://faq.deleercompany.nl YES NO 2026-04-23 11:35:53 2a06:2ec0:1::91 DNS Lookup Test
http://vaultwarden.int.axeos.nl NO NO 2026-04-23 10:52:02 fdee:9608:64ee:1000::35 DNS Lookup Test
http://mail.ggzlichtinzicht.nl YES NO 2026-04-23 10:50:47 2a00:f10:13f:0:1c00:5eff:fe00:1de DNS Lookup Test
http://dekruismobiel.nl.forward.delinie-ict.nl NO NO 2026-04-23 08:09:27 2a00:7c80:0:71::2 DNS Lookup Test
http://nasv6.1rs.nl YES NO 2026-04-23 07:11:02 2a02:a45b:680b:0:c42c:3626:9ce9:c678 DNS Lookup Test
http://smtp.actietaxileiden.nl YES NO 2026-04-23 05:36:51 2001:7b8:618:b:250:56ff:fe8c:a9e7 DNS Lookup Test
http://lionfox.nlLionFox – Just another WordPress site
YES NO 2026-04-23 02:56:09 2a00:1c98:1000:1221:0:2:f47b:54f4 DNS Lookup Test
http://mail.vromanskozijnen.nl YES NO 2026-04-23 00:00:48 2a04:a240:0:31::1 DNS Lookup Test
http://mail.vebb.nlDeze domeinnaam is geregistreerd door een klant van DigiWorks
YES NO 2026-04-22 23:45:07 2a0b:f380:3e8::271 DNS Lookup Test
http://cloud.swabedissen.nl YES NO 2026-04-22 22:18:24 2a07:e345:1:3001:2d53:cd09:0:1 DNS Lookup Test
http://www.cloud.swabedissen.nl YES NO 2026-04-22 22:18:24 2a07:e345:1:3001:2d53:cd09:0:1 DNS Lookup Test
http://matrix.dapperepoging.nl NO NO 2026-04-22 22:14:55 2a07:54c1:4932:111::15 DNS Lookup Test
http://vegascasinohero.nl YES NO 2026-04-22 20:56:48 2a06:98c1:3121::3, 2a06:98c1:3120::3 DNS Lookup Test
http://livekit-turn.dapperepoging.nl NO NO 2026-04-22 20:22:49 2a07:54c1:4932:111::10 DNS Lookup Test
http://livekit.dapperepoging.nl NO NO 2026-04-22 20:22:48 2a07:54c1:4932:111::10 DNS Lookup Test
http://chat.dapperepoging.nl NO NO 2026-04-22 20:20:38 2a07:54c1:4932:111::10 DNS Lookup Test
http://www.academy.nikkiwillemse.nl YES NO 2026-04-22 19:43:58 2a03:3c00:a002:191::100c DNS Lookup Test
http://songselector.csteennis.nl NO NO 2026-04-22 19:11:24 fd7a:115c:a1e0::55d7:ae39 DNS Lookup Test
http://ss.csteennis.nl NO NO 2026-04-22 19:11:24 fd7a:115c:a1e0::55d7:ae39 DNS Lookup Test
http://nl.psychologiepraktijkcoehorst.nl NO NO 2026-04-22 18:58:13 2a01:448:2001::10 DNS Lookup Test
http://zorgverenigingwestbrabant.nl.forward.delinie-ict.nl NO NO 2026-04-22 18:21:04 2a00:7c80:0:71::2 DNS Lookup Test
http://speedtest6.dfn.nlDELTA Fiber Speedtest
YES NO 2026-04-22 15:18:14 2001:4c3a:100:a::10 DNS Lookup Test
http://ouders-lammenschans.ldvleiden.nl YES NO 2026-04-22 15:18:14 2a01:7c8:aac0:a9:5054:ff:feb1:ad34 DNS Lookup Test
http://visimotion-nl.beyoubywiarda.nl YES NO 2026-04-22 15:17:43 2a12:5040:2:600:be24:11ff:feb4:f0d1 DNS Lookup Test
http://nieuw.senioren-pgm.nl YES NO 2026-04-22 15:16:55 2a01:7c8:aab0:245:7034:eca9:dce3:3cdb DNS Lookup Test
http://cocytus.wg.rded.nl NO NO 2026-04-22 15:16:53 2a01:4f8:231:3ac7:1337:1000:0:50 DNS Lookup Test
http://portaal-test.wood-creations.nl YES NO 2026-04-22 15:15:32 2a01:7c8:bb0a:574::7 DNS Lookup Test
http://k3s-headscale.gompcave.nl NO NO 2026-04-22 15:14:39 2a01:4f8:c2c:6f31::2 DNS Lookup Test
http://brabant-leert.subsiflow.nl YES NO 2026-04-22 15:12:09 2a12:5040:1:302:c01b:5ff:fe72:3a58 DNS Lookup Test
http://mamaisondesign.nl NO NO 2026-04-22 15:11:11 2001:41d0:303:47af:4a00::1cea DNS Lookup Test
http://www.mamaisondesign.nl YES NO 2026-04-22 15:11:11 2001:41d0:303:47af:4a00::1cea DNS Lookup Test
http://www.osvschaken.nl YES NO 2026-04-22 15:08:11 2001:41d0:303:47af:5980::22f8 DNS Lookup Test
http://osvschaken.nl NO NO 2026-04-22 15:08:09 2001:41d0:303:47af:5980::22f8 DNS Lookup Test
http://nginx2.vdfvanveen.nl NO NO 2026-04-22 15:07:38 2a10:3781:2f59:50::21 DNS Lookup Test
http://donnadazuro.nl NO NO 2026-04-22 15:07:20 2001:41d0:303:47af:2b80::1100 DNS Lookup Test
http://www.donnadazuro.nl YES NO 2026-04-22 15:07:20 2001:41d0:303:47af:2b80::1100 DNS Lookup Test
http://irc.ds0.nl NO NO 2026-04-22 15:07:19 2001:67c:6bc:22::69 DNS Lookup Test
http://obscuranexus.nlDomeinnaam gereserveerd | mijn.host
YES NO 2026-04-22 15:04:21 2a11:4881:2631:110d:9c43:deff:6551:1 DNS Lookup Test
http://dev.racebaan-winkel.nl YES NO 2026-04-22 15:02:29 2a06:2ec0:1::159 DNS Lookup Test
http://authenticator.biocateringtwente.nl NO NO 2026-04-22 15:01:17 2a01:4f9:c011:14f2:1234:5679:a2:5672 DNS Lookup Test
http://wizardofos.nlTransIP - Reserved domain
YES NO 2026-04-22 15:01:15 2a01:7c8:e100:1::50a0 DNS Lookup Test
http://mail.cgdiemerich.nlWeb Server's Default Page
YES NO 2026-04-22 15:00:53 2a01:7c8:aac9:1bc:5054:ff:fe1c:e43 DNS Lookup Test
http://fancy.cove.woutergroen.nl NO NO 2026-04-22 14:59:35 2a0c:8187:1:9::face DNS Lookup Test
http://w03.rineco.nl YES NO 2026-04-22 14:58:57 2a06:2ec0:1::eeed DNS Lookup Test
http://www.vck.gj-r.nl YES NO 2026-04-22 14:58:56 2a00:1c98:1000:11e1:0:2:ee7c:20e2 DNS Lookup Test
http://ha.terpstraat.nl NO NO 2026-04-22 14:57:48 2a02:a457:2c25:0:5054:ff:fe2a:d14a DNS Lookup Test
http://panel.edtime.nl YES NO 2026-04-22 14:56:49 2a06:2ec0:1::eeed DNS Lookup Test
http://cpanel.salonciaobella.nl YES NO 2026-04-22 14:53:44 2a00:f10:13f:0:1c00:1dff:fe00:192 DNS Lookup Test
http://mail.dvanzelm.nl YES NO 2026-04-22 14:52:52 2a0a:5980:2801:107::12 DNS Lookup Test
http://mail.igetkate.nlDeze domeinnaam is geregistreerd door een klant van DigiWorks
YES NO 2026-04-22 14:49:10 2a0b:f380:3e8::29d DNS Lookup Test
http://mail.7310.nl YES NO 2026-04-22 14:46:51 2a06:2ec0:1::154 DNS Lookup Test
http://eversadviesbureau.nl YES NO 2026-04-22 14:46:46 2a03:5180:7:2:219:6d05:ac86:1 DNS Lookup Test
http://mail.investinrest.nlDomeinnaam gereserveerd | mijn.host
YES NO 2026-04-22 14:45:35 2a11:4881:2631:110d:9c43:deff:6551:1 DNS Lookup Test
http://www.automaterial.nl YES NO 2026-04-22 14:45:29 2a01:4f8:10a:d5b::2 DNS Lookup Test
http://webmail.stbnrs.nlRoundcube Webmail :: Welcome to Roundcube Webmail
YES NO 2026-04-22 14:44:51 2a07:af00:0:1005::1 DNS Lookup Test
http://defiant.b7.hdvl.nl YES NO 2026-04-22 14:44:25 2001:470:1f15:373:e23f:49ff:fe16:2cfc DNS Lookup Test
http://mail.shkn.nl YES NO 2026-04-22 14:43:46 2a02:cc8::102:162 DNS Lookup Test
http://mail.rosemaryathome.nlDomeinnaam gereserveerd | mijn.host
YES NO 2026-04-22 14:43:46 2a03:5180:7:2:84ba:82f4:da86:1 DNS Lookup Test
http://pop.rosemaryathome.nlDomeinnaam gereserveerd | mijn.host
YES NO 2026-04-22 14:43:46 2a03:5180:7:2:84ba:82f4:da86:1 DNS Lookup Test
http://smtp.rosemaryathome.nlDomeinnaam gereserveerd | mijn.host
YES NO 2026-04-22 14:43:46 2a03:5180:7:2:84ba:82f4:da86:1 DNS Lookup Test
http://ftp.rosemaryathome.nlDomeinnaam gereserveerd | mijn.host
YES NO 2026-04-22 14:43:11 2a03:5180:7:2:84ba:82f4:da86:1 DNS Lookup Test
YES NO 2026-04-22 14:41:32 2a06:2ec0:1::130 DNS Lookup Test
http://smollys.nl NO NO 2026-04-22 14:40:55 2a10:3781:32f:1::4611:a001 DNS Lookup Test
http://nordkitchen.nl NO NO 2026-04-22 14:39:32 :: DNS Lookup Test
http://webmail.vhamilia-vastgoed.nl NO NO 2026-04-22 14:32:58 2a01:7860::db:7302:1:1 DNS Lookup Test
http://lisa.pottjewijd.nl YES NO 2026-04-22 14:31:32 2a03:3c00:a002:197::1007 DNS Lookup Test
http://mail.levgames.nl YES NO 2026-04-22 14:30:55 2a06:2ec0:1::143 DNS Lookup Test
http://mfp.cloudmanagement.nl YES NO 2026-04-22 14:29:59 2a02:4780:55:4:aca1:a1e9:4b8f:f7e9 DNS Lookup Test
http://tel-pve-17.telco-mgmt.nl NO NO 2026-04-22 14:28:11 2a00:7c80:0:10e::10 DNS Lookup Test
YES NO 2026-04-22 14:26:06 2a01:7c8:aac2:2ac:5054:ff:fec5:bf3c DNS Lookup Test
http://mail.exalynz.nlDeze domeinnaam is geregistreerd door een klant van DigiWorks
YES NO 2026-04-22 14:25:43 2a0b:f380:3e8::29d DNS Lookup Test
http://webmail.richardverbeek.nlwebmail.richardverbeek.nl
YES NO 2026-04-22 14:25:08 2a03:3c00:a002:203::1000 DNS Lookup Test
http://fw2.bitob.cloud.bit.nl NO NO 2026-04-22 14:24:50 2001:7b8:617:b800::4 DNS Lookup Test
http://bz6.s37.nl NO NO 2026-04-22 14:24:02 2a02:a44b:df5d::1 DNS Lookup Test
http://fw1.bitob.cloud.bit.nl NO NO 2026-04-22 14:23:52 2001:7b8:617:b800::3 DNS Lookup Test
http://mail.softwarefix.nl YES NO 2026-04-22 14:23:32 2a00:1bd0:0:148:5:22:249:133 DNS Lookup Test
http://pop.softwarefix.nl YES NO 2026-04-22 14:23:22 2a00:1bd0:0:148:5:22:249:133 DNS Lookup Test
http://smtp.softwarefix.nl YES NO 2026-04-22 14:23:21 2a00:1bd0:0:148:5:22:249:133 DNS Lookup Test
http://mail.fleximaal.nl YES NO 2026-04-22 14:22:37 2a01:7c8:bb0a:520:5054:ff:fe9d:3741 DNS Lookup Test
http://zeeleeuw.at-the-beach.nl NO NO 2026-04-22 14:21:54 2001:470:7a85:2f25::d00f DNS Lookup Test
http://mail.prowo.nlDomeinnaam gereserveerd | mijn.host
YES NO 2026-04-22 14:21:17 2a11:4881:2631:110d:9c43:deff:6551:1 DNS Lookup Test
http://dlwo-onsite.nl YES NO 2026-04-22 14:20:56 2a01:448:2001::10 DNS Lookup Test
http://tel-pbs-04.telco-mgmt.nl NO NO 2026-04-22 14:20:21 2a00:7c80:0:37::11 DNS Lookup Test
http://ziti.tobroco.nl YES NO 2026-04-22 14:18:38 2a0b:3100:20::a1 DNS Lookup Test
http://sonarr.lenscorp.nl NO NO 2026-04-22 14:18:16 2a02:a46d:984:0:5525:49eb:9df7:c023 DNS Lookup Test
http://mail.detandheelkundehoek.nl YES NO 2026-04-22 14:17:33 2a06:2ec0:ded1:1:0:51:28:1 DNS Lookup Test
http://6nu9.nlWeb Server's Default Page
YES NO 2026-04-22 14:17:32 2a01:448:1005::101 DNS Lookup Test
http://www.yakitomo.nl YES NO 2026-04-22 14:17:04 2a00:1c98:1000:1284:0:4:3079:6355 DNS Lookup Test
http://yakitomo.nl YES NO 2026-04-22 14:17:04 2a00:1c98:1000:1284:0:4:3079:6355 DNS Lookup Test
http://www.wijksegraanschuur.nl.lunaworx.nl YES NO 2026-04-22 14:16:39 2a06:2ec0:1::161 DNS Lookup Test
http://mail6.rutger.nl NO NO 2026-04-22 14:16:30 2a10:3781:4433:1::1025 DNS Lookup Test
http://cpcontacts.lunaworx.nl YES NO 2026-04-22 14:15:21 2a06:2ec0:1::161 DNS Lookup Test
http://asb2.netsense.nl NO NO 2026-04-22 14:13:55 2a10:3781:18cd:1:2:3:4:224 DNS Lookup Test
YES NO 2026-04-22 14:13:01 2a0e:7280:0:188:173:777:0:1 DNS Lookup Test
YES NO 2026-04-22 14:13:01 2a0e:7280:0:188:173:777:0:1 DNS Lookup Test
http://robot.brittle.nl NO NO 2026-04-22 14:12:48 2a02:a450:9267:0:20d6:4cff:fe0f:5c5c DNS Lookup Test
http://www.nas.damzproducties.nl YES NO 2026-04-22 14:12:00 2a03:3c00:a002:178::1013 DNS Lookup Test
http://ftp.zariweb.nl YES NO 2026-04-22 14:10:10 2a05:1500:702:3:1c00:30ff:fe00:1435 DNS Lookup Test
http://portaal.wood-creations.nl YES NO 2026-04-22 14:08:08 2a01:7c8:bb0a:574::6 DNS Lookup Test
http://quala.nl.portalserver.nl YES NO 2026-04-22 14:06:14 2a00:1c98:1000:1293:0:3:fb60:3282 DNS Lookup Test
http://webdisk.auction2day.nl YES NO 2026-04-22 14:04:13 2a02:40c1:0:3:1c00:8aff:fe00:2095 DNS Lookup Test
http://robinmaat.nl YES NO 2026-04-22 14:03:31 2a00:1478:200:0:5:953:0:1 DNS Lookup Test
http://www.relay.dkhonline.nl NO NO 2026-04-22 14:03:29 2a00:4e40:1:1::2:10b DNS Lookup Test
http://relay.dkhonline.nl NO NO 2026-04-22 14:03:28 2a00:4e40:1:1::2:10b DNS Lookup Test
http://aaabouwservice.nl YES NO 2026-04-22 14:03:24 2a02:4780:8:996:0:329a:3a5b:a DNS Lookup Test
http://ftp.kapiteinpersoneel.nl YES NO 2026-04-22 14:03:21 2a03:3f40:e:810::5 DNS Lookup Test
http://vangemenstrategie.nl YES NO 2026-04-22 14:03:20 2a01:7c8:e100:1::50a0 DNS Lookup Test
http://stream.sublimefm.nl NO NO 2026-04-22 14:02:14 2a01:7c8:bb0a:5e:5054:ff:fefe:b047 DNS Lookup Test
http://www.leonspekken.nl YES NO 2026-04-22 14:01:29 2a06:2ec0:1::156 DNS Lookup Test
http://mail.samenwerkingscoach.nl YES NO 2026-04-22 13:52:29 2a0b:7280:200:0:41b:cff:fe00:d89 DNS Lookup Test
http://tel-pve-99.telco-mgmt.nl NO NO 2026-04-22 13:52:02 2a00:7c80:0:130::10 DNS Lookup Test
http://netbox.stroeveict.nl NO NO 2026-04-22 13:48:53 2a02:a46a:c58b:1::81 DNS Lookup Test
http://collabora.lenscorp.nl NO NO 2026-04-22 13:48:38 2a02:a46d:984:0:5525:49eb:9df7:c023 DNS Lookup Test
http://brouwhoeve-delicatessen.nlTransIP - Reserved domain
YES NO 2026-04-22 13:47:24 2a01:7c8:3:1337::27 DNS Lookup Test
http://validius.nlTransIP - Reserved domain
YES NO 2026-04-22 13:47:07 2a01:7c8:3:1337::27 DNS Lookup Test
http://nas03.itplanet.nl NO NO 2026-04-22 13:46:13 2a02:a457:e232:0:4083:7a18:a6fb:26eb DNS Lookup Test
http://ftp.ai-voorondernemers.nlDomeinnaam gereserveerd | mijn.host
YES NO 2026-04-22 13:44:42 2a11:4880:0:1bb4::1 DNS Lookup Test
http://smtp.ai-voorondernemers.nlDomeinnaam gereserveerd | mijn.host
YES NO 2026-04-22 13:44:42 2a11:4880:0:1bb4::1 DNS Lookup Test
http://pop.ai-voorondernemers.nlDomeinnaam gereserveerd | mijn.host
YES NO 2026-04-22 13:44:42 2a11:4880:0:1bb4::1 DNS Lookup Test
http://ai-voorondernemers.nl NO NO 2026-04-22 13:44:42 2a11:4880:0:1bb4::1 DNS Lookup Test
http://ip6.bbnetworks.nl YES NO 2026-04-22 13:41:56 2a01:7c8:bb02:2df::1 DNS Lookup Test
http://smtp.koffietheek.nl YES NO 2026-04-22 13:40:48 2a01:7c8:bb06:db:: DNS Lookup Test
http://pop.wda-groep.nl YES NO 2026-04-22 13:38:57 2a05:1500:702:3:1c00:d6ff:fe00:1442 DNS Lookup Test
http://mail.wda-groep.nl YES NO 2026-04-22 13:38:56 2a05:1500:702:3:1c00:d6ff:fe00:1442 DNS Lookup Test
YES NO 2026-04-22 13:38:56 2a05:1500:702:3:1c00:d6ff:fe00:1442 DNS Lookup Test
http://spaanse-tegels.designtegels.nl YES NO 2026-04-22 13:38:56 2620:127:f00f:5:: DNS Lookup Test
http://marokkaanse-tegels.designtegels.nl YES NO 2026-04-22 13:38:56 2620:127:f00f:5:: DNS Lookup Test
http://mail.metalflowerbox.nl YES NO 2026-04-22 13:38:26 2a06:2ec0:1::167 DNS Lookup Test
http://onderhoudsproducten.designtegels.nl YES NO 2026-04-22 13:38:17 2620:127:f00f:5:: DNS Lookup Test
http://keramische-tegels.designtegels.nl YES NO 2026-04-22 13:38:13 2620:127:f00f:5:: DNS Lookup Test
http://cementtegels.designtegels.nl YES NO 2026-04-22 13:37:58 2620:127:f00f:5:: DNS Lookup Test
http://webmail.switchzin.nl YES NO 2026-04-22 13:37:49 2a00:1ca8:e:2::facd:5f01 DNS Lookup Test
http://ha.oomsgeugies.nl NO NO 2026-04-22 13:37:22 2a0d:6e00:1001:3::232 DNS Lookup Test
http://mail.depadelking.nl YES NO 2026-04-22 13:36:59 2a04:a240:0:33::1 DNS Lookup Test
YES NO 2026-04-22 13:36:13 2a10:9903:311:c222::1 DNS Lookup Test
YES NO 2026-04-22 13:36:13 2a10:9903:311:c222::1 DNS Lookup Test
http://louisette.nl NO NO 2026-04-22 13:35:33 2a01:7c8:eb:0:95:170:70:156 DNS Lookup Test
http://trainer.gerbenveenhof.nl YES NO 2026-04-22 13:34:10 2a06:2ec0:1::146 DNS Lookup Test
http://vanhoevenmode.nl YES NO 2026-04-22 13:34:10 2620:127:f00f:a:: DNS Lookup Test
http://cpcalendars.riaremko.nl NO NO 2026-04-22 13:32:37 ::1 DNS Lookup Test
http://webmail.riaremko.nl NO NO 2026-04-22 13:32:37 ::1 DNS Lookup Test
http://autodiscover.riaremko.nl NO NO 2026-04-22 13:32:35 ::1 DNS Lookup Test
http://cpcontacts.riaremko.nl NO NO 2026-04-22 13:32:34 ::1 DNS Lookup Test
http://www.riaremko.nl NO NO 2026-04-22 13:32:34 ::1 DNS Lookup Test
http://cpcalendars.salomons-swierts.nl NO NO 2026-04-22 13:32:32 ::1 DNS Lookup Test
http://riaremko.nl NO NO 2026-04-22 13:32:32 ::1 DNS Lookup Test
http://cpanel.riaremko.nl NO NO 2026-04-22 13:32:32 ::1 DNS Lookup Test
http://webdisk.riaremko.nl NO NO 2026-04-22 13:32:32 ::1 DNS Lookup Test
http://mail.riaremko.nl NO NO 2026-04-22 13:32:32 ::1 DNS Lookup Test
http://webmail.salomons-swierts.nl NO NO 2026-04-22 13:32:31 ::1 DNS Lookup Test
http://www.salomons-swierts.nl NO NO 2026-04-22 13:32:31 ::1 DNS Lookup Test
http://autodiscover.salomons-swierts.nl NO NO 2026-04-22 13:32:31 ::1 DNS Lookup Test
http://cpcontacts.salomons-swierts.nl NO NO 2026-04-22 13:32:29 ::1 DNS Lookup Test
http://salomons-swierts.nl NO NO 2026-04-22 13:32:29 ::1 DNS Lookup Test
http://webdisk.salomons-swierts.nl NO NO 2026-04-22 13:32:29 ::1 DNS Lookup Test
http://mail.salomons-swierts.nl NO NO 2026-04-22 13:32:24 ::1 DNS Lookup Test
http://cpanel.salomons-swierts.nl NO NO 2026-04-22 13:32:24 ::1 DNS Lookup Test
http://cpanel.voc-midden-nederland.nl NO NO 2026-04-22 13:31:13 ::1 DNS Lookup Test
http://voc-midden-nederland.nl NO NO 2026-04-22 13:31:13 ::1 DNS Lookup Test
http://webmail.voc-midden-nederland.nl NO NO 2026-04-22 13:31:13 ::1 DNS Lookup Test
http://webdisk.voc-midden-nederland.nl NO NO 2026-04-22 13:31:13 ::1 DNS Lookup Test
http://cpcalendars.voc-midden-nederland.nl NO NO 2026-04-22 13:31:12 ::1 DNS Lookup Test
http://autodiscover.voc-midden-nederland.nl NO NO 2026-04-22 13:31:12 ::1 DNS Lookup Test
http://mail.voc-midden-nederland.nl NO NO 2026-04-22 13:31:12 ::1 DNS Lookup Test
http://cpcontacts.voc-midden-nederland.nl NO NO 2026-04-22 13:31:12 ::1 DNS Lookup Test
http://www.voc-midden-nederland.nl NO NO 2026-04-22 13:31:12 ::1 DNS Lookup Test
http://alpha.ikbenpro.nl NO NO 2026-04-22 13:29:56 2a02:c206:2133:469::1 DNS Lookup Test
http://stockpython.sustvest.nl NO NO 2026-04-22 13:28:55 2a05:d014:175:964b:ea1e:a354:c4bf:752 DNS Lookup Test
http://jobeco.nl YES NO 2026-04-22 13:28:25 2001:678:be4:8::20 DNS Lookup Test
http://test.streekstadcentraal.nl NO NO 2026-04-22 13:28:20 2a00:1708:3ee3::167:17 DNS Lookup Test
http://homedefence.digitaldigging.nl NO NO 2026-04-22 13:27:18 2a01:7c8:aabc:1de:5054:ff:fe54:904e DNS Lookup Test
http://unifi.naruebase.nl NO NO 2026-04-22 13:26:48 fd10:aec2:5dae:: DNS Lookup Test
http://www.video.uwvvebestuurder.nl YES NO 2026-04-22 13:25:31 2a03:3c00:a002:a005::1 DNS Lookup Test
http://www.audio.uwvvebestuurder.nl YES NO 2026-04-22 13:25:31 2a03:3c00:a002:a005::1 DNS Lookup Test
http://hoerensloep.nl YES NO 2026-04-22 13:23:58 2a01:7c8:bb0c:1e5:5054:ff:fea9:5f2c DNS Lookup Test
http://easitalia-site.vanvanni.nl YES NO 2026-04-22 13:22:02 2a00:1ed0:1100::160:0:20c3 DNS Lookup Test
http://haarmodeverheijen-site.vanvanni.nl YES NO 2026-04-22 13:22:02 2a00:1ed0:1100::160:0:20c3 DNS Lookup Test
http://beelding-site.vanvanni.nl YES NO 2026-04-22 13:22:02 2a00:1ed0:1100::160:0:20c3 DNS Lookup Test
http://telstarmedia.nlDomeinnaam gereserveerd | mijn.host
YES NO 2026-04-22 13:21:40 2a11:4880:0:f805::1 DNS Lookup Test
http://buckets.s3.wk3r.nl NO NO 2026-04-22 13:20:15 2a10:3781:46df:17:aaa1:59ff:fe58:0 DNS Lookup Test
http://www.stemmen.bloemencorsowinkel.nl YES NO 2026-04-22 13:18:47 2a06:2ec0:ded1:1::5 DNS Lookup Test
http://lamsmaweb.nl YES NO 2026-04-22 13:18:44 2a03:3c00:a002:203::1004 DNS Lookup Test
http://ip.neliz.nl YES NO 2026-04-22 13:12:00 2a0f:b240:7702:132:b140:340e:e5c5:a531 DNS Lookup Test
http://mail.zuidcoffeeandconcept.nlDeze domeinnaam is geregistreerd door een klant van DigiWorks
YES NO 2026-04-22 13:10:58 2a0b:f380:3e8::24f DNS Lookup Test
http://servertje.nl NO NO 2026-04-22 13:10:16 ::1 DNS Lookup Test
http://library.costellosmit.nl NO NO 2026-04-22 13:09:42 2a01:7c8:bb09:bc:5054:ff:fe5b:36c9 DNS Lookup Test
http://glp.piggyshed.nl NO NO 2026-04-22 13:08:05 2001:4c3b:9c05:3::1930 DNS Lookup Test
http://ldap.datahove.nl NO NO 2026-04-22 13:04:34 2a0e:7180:aaaa:2883:1000::2 DNS Lookup Test
http://www.vportal.easyconnect.nl YES NO 2026-04-22 13:03:49 2001:7b8:618:a:213:154:231:202 DNS Lookup Test
http://mail.cafe-vanrijn.nl YES NO 2026-04-22 13:03:26 2a00:f10:305:0:1c00:e7ff:fe00:52d DNS Lookup Test
http://www.deployment.abovo.nl YES NO 2026-04-22 13:03:10 2a00:1c98:1000:1104:0:1:c9d0:82c7 DNS Lookup Test
http://ftp.clickwerk.nl YES NO 2026-04-22 13:03:07 2a10:9903:311:c222::1 DNS Lookup Test
http://truenas.thaaijer.nl NO NO 2026-04-22 13:02:50 2a02:a46c:e90:1:aad8:3ffd:f9c8:bc36 DNS Lookup Test
http://paperless.riccza.nl NO NO 2026-04-22 12:59:51 2001:67c:918:2b0:80::80 DNS Lookup Test
http://mc.casb02.nl NO NO 2026-04-22 12:55:37 2a00:11c0:47:1efc::1 DNS Lookup Test
http://pop.rehobothschool.scopescholen.nl YES NO 2026-04-22 12:54:22 2a02:cc8::103:144 DNS Lookup Test
http://smtp.rehobothschool.scopescholen.nl YES NO 2026-04-22 12:54:22 2a02:cc8::103:144 DNS Lookup Test
http://ftp.rehobothschool.scopescholen.nl YES NO 2026-04-22 12:54:22 2a02:cc8::103:144 DNS Lookup Test
http://mail.rehobothschool.scopescholen.nl YES NO 2026-04-22 12:54:22 2a02:cc8::103:144 DNS Lookup Test
http://magazijnonline.nlmagazijnonline.nl
YES NO 2026-04-22 12:54:06 2600:9000:a412:ebed:3a5d:d6ff:4310:3f0f DNS Lookup Test
http://ai4accountants.nl NO NO 2026-04-22 12:48:44 ::1 DNS Lookup Test
http://collections.wouteroosterveld.nl YES NO 2026-04-22 12:48:22 2001:1af8:2:3:12::4a01 DNS Lookup Test
http://proxy.production.10xcrew.letstalk.nl NO NO 2026-04-22 12:46:47 2a0b:b602:1003::203 DNS Lookup Test
http://kinderkamerkoopjes.nl NO NO 2026-04-22 12:45:49 2a01:7c8:eb:0:149:210:209:74 DNS Lookup Test
http://youri-design.nl YES NO 2026-04-22 12:41:04 2a01:448:2001::10 DNS Lookup Test
http://lagewegav.nlTransIP - Reserved domain
YES NO 2026-04-22 12:39:54 2a01:7c8:e100:1::50a0 DNS Lookup Test
YES NO 2026-04-22 12:38:29 2a04:3544:1000:1510:3cc8:64ff:fefa:22f8 DNS Lookup Test
YES NO 2026-04-22 12:38:29 2a04:3544:1000:1510:3cc8:64ff:fefa:22f8 DNS Lookup Test
http://www.erfrechtnederland.sjoonesite.nl YES NO 2026-04-22 12:38:16 2a03:3b00:1:0:700a:b7ff:fe10:737a DNS Lookup Test
http://erfrechtnederland.sjoonesite.nlVraag het de specialisten :: Erfrecht Nederland - Experts in erfrechtplanning
YES NO 2026-04-22 12:38:16 2a03:3b00:1:0:700a:b7ff:fe10:737a DNS Lookup Test
http://mail.jelleverkleij.nlDomeinnaam gereserveerd | mijn.host
YES NO 2026-04-22 12:37:09 2a11:4880:0:b6b3::1 DNS Lookup Test
http://www.intake.sensare.nl YES NO 2026-04-22 12:36:55 2a02:9e0:9000::11 DNS Lookup Test
http://doorgadesign.nl YES NO 2026-04-22 12:35:12 2620:127:f00f:5:: DNS Lookup Test
http://smtp.springprojects.nl YES NO 2026-04-22 12:34:23 2a0b:2c81:1::147 DNS Lookup Test
http://monnejonker.nl NO NO 2026-04-22 12:33:12 2a02:a46e:1194:221::101 DNS Lookup Test
http://niketeamfootball.com.dev.thevalley.nl YES NO 2026-04-22 12:27:06 2a00:cc0:11:1300::53 DNS Lookup Test
http://pietervanderhaak.nl YES NO 2026-04-22 12:25:11 2a01:7c8:f0:1041::78d5:be9e DNS Lookup Test
http://www.pietervanderhaak.nl YES NO 2026-04-22 12:25:11 2a01:7c8:f0:1041::78d5:be9e DNS Lookup Test
http://ambassadorsofentertainment.nl YES NO 2026-04-22 12:23:31 2606:4700:7::a29f:8146 DNS Lookup Test
http://insights.pcextreme.nl NO NO 2026-04-22 12:23:27 2a00:f10:101:0:4da:d0ff:fe00:b0 DNS Lookup Test
http://server.ranking.nl NO NO 2026-04-22 12:23:00 2a01:7c8:aaaa:143:5054:ff:fee4:245e DNS Lookup Test
http://intranet.pcextreme.nl NO NO 2026-04-22 12:22:45 2a00:f10:101:0:4da:d0ff:fe00:b0 DNS Lookup Test
http://cpcalendars.mynfra.nl YES NO 2026-04-22 12:22:43 2a00:f10:305:0:1c00:d0ff:fe00:4c5 DNS Lookup Test
http://webmail.mynfra.nl YES NO 2026-04-22 12:22:42 2a00:f10:305:0:1c00:d0ff:fe00:4c5 DNS Lookup Test
http://cpcontacts.mynfra.nl NO NO 2026-04-22 12:22:42 2a00:f10:305:0:1c00:d0ff:fe00:4c5 DNS Lookup Test
http://owncloud.pcextreme.nl NO NO 2026-04-22 12:22:36 2a00:f10:101:0:4da:d0ff:fe00:b0 DNS Lookup Test
http://nextcloud.pcextreme.nl NO NO 2026-04-22 12:22:30 2a00:f10:101:0:4da:d0ff:fe00:b0 DNS Lookup Test
http://webdisk.mynfra.nl YES NO 2026-04-22 12:22:29 2a00:f10:305:0:1c00:d0ff:fe00:4c5 DNS Lookup Test
http://smartaccountancy.nl NO NO 2026-04-22 12:21:02 ::1 DNS Lookup Test
http://www.smartaccountancy.nl NO NO 2026-04-22 12:21:02 ::1 DNS Lookup Test
http://nominow.com.dev.thevalley.nl NO NO 2026-04-22 12:19:32 2a00:cc0:11:1300::39 DNS Lookup Test
http://smtp.najou.nl YES NO 2026-04-22 12:18:49 2a0b:2c81:1::147 DNS Lookup Test
http://ballonnenhoogeveen.nl NO NO 2026-04-22 12:16:31 2a01:7c8:bb0b:35d:5054:ff:fe1b:91bb DNS Lookup Test
http://mx3.vandervis-texel.nl YES NO 2026-04-22 12:16:24 2a02:a45f:f57b::3 DNS Lookup Test
http://eddodehaas.nlDomeinnaam gereserveerd | mijn.host
YES NO 2026-04-22 12:13:35 2a11:4881:1:8ac6::1 DNS Lookup Test
http://www.track.althopestcontrol.nltrack.althopestcontrol.nl
YES NO 2026-04-22 12:13:13 2a03:5180:7:3:7e95:2504:189:1 DNS Lookup Test
http://ftp.aplusacc.nlftp.aplusacc.nl
YES NO 2026-04-22 12:11:51 2a07:ae80:100:0:185:158:164:54 DNS Lookup Test
http://smtp.aplusacc.nlsmtp.aplusacc.nl
YES NO 2026-04-22 12:11:51 2a07:ae80:100:0:185:158:164:54 DNS Lookup Test
http://pop.aplusacc.nlpop.aplusacc.nl
YES NO 2026-04-22 12:11:51 2a07:ae80:100:0:185:158:164:54 DNS Lookup Test
YES NO 2026-04-22 12:10:45 2a02:a45e:810f:0:be24:11ff:fec7:ba4c DNS Lookup Test
http://nkll.nl YES NO 2026-04-22 12:08:47 2a01:4f8:251:1512::2 DNS Lookup Test
http://autodiscover.erntraffic.nl YES NO 2026-04-22 12:08:24 2a03:3b00:1:0:700a:b7ff:fe10:4279 DNS Lookup Test
http://dev.henniedegans.nl YES NO 2026-04-22 12:03:32 2a03:5180:7:2::1:0 DNS Lookup Test
http://test.digital-lawyer.nl YES NO 2026-04-22 12:02:33 2a01:7c8:bb0d:5ad:5054:ff:fe06:fa27 DNS Lookup Test
http://reink.nl YES NO 2026-04-22 12:01:09 2a01:4f8:1061:13dd::2 DNS Lookup Test
http://www.reink.nl YES NO 2026-04-22 12:01:09 2a01:4f8:1061:13dd::2 DNS Lookup Test
http://www.decokeuken.nl YES NO 2026-04-22 12:00:22 2a01:4f8:1c1f:afc9::1 DNS Lookup Test
http://matrix.toegangs.nl YES NO 2026-04-22 11:59:52 2a10:3781:4ac1:31:610:d5:7018:572a DNS Lookup Test
http://smtp.warmewaarheid.nl YES NO 2026-04-22 11:58:21 2a01:310:8312:1046:185:58:56:243 DNS Lookup Test
http://pop.warmewaarheid.nl YES NO 2026-04-22 11:58:21 2a01:310:8312:1046:185:58:56:243 DNS Lookup Test
http://ftp.warmewaarheid.nl YES NO 2026-04-22 11:58:19 2a01:310:8312:1046:185:58:56:243 DNS Lookup Test
http://mail.noordwestgroep.nl YES NO 2026-04-22 11:56:50 2a03:b0c0:2:d0::e6e:f001 DNS Lookup Test
http://mtctuf.nl YES NO 2026-04-22 11:55:16 2a02:4a8:ac24:117::101:5 DNS Lookup Test
http://ftp.ajtuinmeubelen.nl YES NO 2026-04-22 11:54:55 2a03:8e20::213 DNS Lookup Test
http://www.kraaycoprojecten.nl YES NO 2026-04-22 11:54:47 2a01:7c8:bb0b:34d:0:42:69:48 DNS Lookup Test
http://mail.loonstrookonline.nl YES NO 2026-04-22 11:54:12 2a03:3c00:a002:250::110d DNS Lookup Test
http://lithium.ikketim.nl NO NO 2026-04-22 11:53:42 2a02:c207:2278:6567::1 DNS Lookup Test
http://notify.debruijnit.nl YES NO 2026-04-22 11:52:55 2a01:448:2001::10 DNS Lookup Test
http://autodiscover.conrise.nl YES NO 2026-04-22 11:52:53 2a03:3b00:1:0:700a:b7ff:fe10:4279 DNS Lookup Test
http://www.famvannielen.nl NO NO 2026-04-22 11:52:43 2a03:5180:7:2:7b12:f62f:b09a:1 DNS Lookup Test
http://corp.mfn.nlTransIP - Reserved domain
YES NO 2026-04-22 11:51:42 2a01:7c8:3:1337::27 DNS Lookup Test
http://apns03.qsit.nl NO NO 2026-04-22 11:50:33 2a10:3781:67:10::300 DNS Lookup Test
http://www.accountancytoekomst.nl NO NO 2026-04-22 11:48:22 ::1 DNS Lookup Test
http://www.dmi-programmabureau.nl NO NO 2026-04-22 11:46:15 2a11:4880:0:f805::1 DNS Lookup Test
http://pop.dmi-programmabureau.nlDomeinnaam gereserveerd | mijn.host
YES NO 2026-04-22 11:46:15 2a11:4880:0:f805::1 DNS Lookup Test
http://ftp.dmi-programmabureau.nlDomeinnaam gereserveerd | mijn.host
YES NO 2026-04-22 11:46:15 2a11:4880:0:f805::1 DNS Lookup Test
http://smtp.dmi-programmabureau.nlDomeinnaam gereserveerd | mijn.host
YES NO 2026-04-22 11:46:15 2a11:4880:0:f805::1 DNS Lookup Test
http://track-v6.qonnect-it.nl YES NO 2026-04-22 11:45:20 2a01:7c8:aab9:9f::1 DNS Lookup Test
http://mail.optixbv.nl YES NO 2026-04-22 11:44:56 2a00:f10:305:0:1c00:8cff:fe00:445 DNS Lookup Test
http://tailscale.viscosit.nl YES NO 2026-04-22 11:40:32 2001:41d0:301:100:51:91:60:76 DNS Lookup Test
http://site.aivor.nl YES NO 2026-04-22 11:39:58 2a00:d640:d640:9999::2eeb:283a DNS Lookup Test
http://www.lamborghini.badjo.nl YES NO 2026-04-22 11:38:25 2a03:3c00:a001:a1e2::1 DNS Lookup Test
http://superset.wk3r.nl NO NO 2026-04-22 11:38:20 fdb3:a42e:2e35:17:aaa1:59ff:fe58:3 DNS Lookup Test
http://mail.zonomultidiensten.nl NO NO 2026-04-22 11:35:14 2a06:2ec0:1::115 DNS Lookup Test
http://6.client.heijnenspee.nl YES NO 2026-04-22 11:33:43 2001:1c05:200c:bc00::50 DNS Lookup Test
http://client.heijnenspee.nl NO NO 2026-04-22 11:33:40 2001:1c05:200c:bc00::50 DNS Lookup Test
http://cpcontacts.schoonheidssalonvisage.nl YES NO 2026-04-22 11:32:07 2a00:f10:13f:0:1c00:6eff:fe00:153 DNS Lookup Test
http://cpanel.schoonheidssalonvisage.nl YES NO 2026-04-22 11:32:07 2a00:f10:13f:0:1c00:6eff:fe00:153 DNS Lookup Test
http://webmail.schoonheidssalonvisage.nl YES NO 2026-04-22 11:32:07 2a00:f10:13f:0:1c00:6eff:fe00:153 DNS Lookup Test
http://webdisk.schoonheidssalonvisage.nl YES NO 2026-04-22 11:32:03 2a00:f10:13f:0:1c00:6eff:fe00:153 DNS Lookup Test
http://webdisk.vastgoedstadshart.nl YES NO 2026-04-22 11:31:36 2a00:f10:305:0:1c00:bfff:fe00:4de DNS Lookup Test
http://cpcontacts.vastgoedstadshart.nl YES NO 2026-04-22 11:31:36 2a00:f10:305:0:1c00:bfff:fe00:4de DNS Lookup Test
http://autodiscover.vastgoedstadshart.nl YES NO 2026-04-22 11:31:28 2a00:f10:305:0:1c00:bfff:fe00:4de DNS Lookup Test
http://email.subsiflow.nl YES NO 2026-04-22 11:30:02 2a12:5040:1:302:c01b:5ff:fe72:3a58 DNS Lookup Test
http://www.estherdamsma.nlwww.estherdamsma.nl
YES NO 2026-04-22 11:30:01 2600:9000:a412:ebed:3a5d:d6ff:4310:3f0f DNS Lookup Test
http://estherdamsma.nlestherdamsma.nl
YES NO 2026-04-22 11:30:01 2600:9000:a412:ebed:3a5d:d6ff:4310:3f0f DNS Lookup Test
http://www.estherdamsma-gezinstherapie.nlwww.estherdamsma-gezinstherapie.nl
YES NO 2026-04-22 11:30:00 2600:9000:a412:ebed:3a5d:d6ff:4310:3f0f DNS Lookup Test
http://estherdamsma-gezinstherapie.nlestherdamsma-gezinstherapie.nl
YES NO 2026-04-22 11:30:00 2600:9000:a412:ebed:3a5d:d6ff:4310:3f0f DNS Lookup Test
http://www.twoleaf.nl NO NO 2026-04-22 11:27:55 2a06:2ec0:1::96 DNS Lookup Test
http://twoleaf.nl NO NO 2026-04-22 11:27:55 2a06:2ec0:1::96 DNS Lookup Test
http://autodiscover.nahuelgarcia.nl YES NO 2026-04-22 11:27:25 2a03:3b00:1:0:700a:b7ff:fe10:4279 DNS Lookup Test
http://zangatelierjoia.nlHostnet: De grootste domeinnaam- en hostingprovider van Nederland.
YES NO 2026-04-22 11:26:03 2a02:2268:1:0:f816:3eff:fe7b:63c6 DNS Lookup Test
http://mxtest.searchy.nl NO NO 2026-04-22 11:25:04 2a01:4f8:1c1e:a958:216:3eff:fe7a:4f3b DNS Lookup Test
http://misssminxie.nl YES NO 2026-04-22 11:24:48 2a10:3781:39b5:1::80:1 DNS Lookup Test
http://linuxfromscratch.nl YES NO 2026-04-22 11:24:44 2a10:3781:39b5:1::666 DNS Lookup Test
http://www.linuxfromscratch.nl YES NO 2026-04-22 11:24:44 2a10:3781:39b5:1::666 DNS Lookup Test
http://test.bump-out.nl YES NO 2026-04-22 11:24:18 2001:7b8:620:1::d59a:e291 DNS Lookup Test
http://marjamiddelkoop.nl YES NO 2026-04-22 11:24:00 2a03:5180:7:2:7b12:f62f:b09a:1 DNS Lookup Test
http://balotravel.designedbysens.nl YES NO 2026-04-22 11:23:04 2a0b:3100:20::26 DNS Lookup Test
http://lesincp.v2.appec.nl YES NO 2026-04-22 11:20:27 2a01:7c8:f0:10f2::b9d3:c8d6 DNS Lookup Test
http://home.aboonstra.nl YES NO 2026-04-22 11:20:08 2001:4c3c:f205:8200:ec4:7aff:fe90:a87 DNS Lookup Test
http://hk821.3721.nlWelcome to nginx!
YES NO 2026-04-22 11:19:53 240b:4001:278:8403:0:e1a:84dd:5af DNS Lookup Test
http://www.vvbuitenpost.nl YES NO 2026-04-22 11:17:24 2a01:7c8:f0:1152:0:2:f97:cf2e DNS Lookup Test
http://m.ledderadvies.nl YES NO 2026-04-22 11:16:23 2a0b:3100:20::f DNS Lookup Test
http://mail.timmerman-santpoort.nl YES NO 2026-04-22 11:16:08 2a00:1938:1:a008::8:0 DNS Lookup Test
http://vermeuleneieren.nl YES NO 2026-04-22 11:15:36 2a01:4f8:c013:4891::100 DNS Lookup Test
http://tel-pve-51.telco-mgmt.nl NO NO 2026-04-22 11:15:15 2a00:7c80:0:1c5::10 DNS Lookup Test
http://mail.werkenbijvanwees.nl YES NO 2026-04-22 11:13:56 2a04:a240:0:35::1 DNS Lookup Test
http://homelab.martijnveltman.nl NO NO 2026-04-22 11:13:27 fe80::da3a:ddff:fe46:f5ba DNS Lookup Test
http://grafana.ijsbaan.elsa-en-gerben.nl NO NO 2026-04-22 11:11:52 2001:1c00:30f:bf00:be24:11ff:fed4:3053, 2001:1c00:30f:bf00:be24:11ff:fe06:b4ed DNS Lookup Test
http://haikon.nlDomeinnaam gereserveerd | mijn.host
YES NO 2026-04-22 11:11:36 2a03:5180:7:2:aeb5:a8e8:ef8c:1 DNS Lookup Test
http://blackpearl.cove.woutergroen.nl NO NO 2026-04-22 11:11:05 2a0c:8187:1:9::b1ac DNS Lookup Test
http://ftp.citybuzz.nl YES NO 2026-04-22 11:10:35 2a0b:7280:100:0:432:f0ff:fe00:2088 DNS Lookup Test
http://freedom.cove.woutergroen.nl NO NO 2026-04-22 11:08:52 2a0c:8187:1:9::f7ee DNS Lookup Test
http://media.slxh.nl NO NO 2026-04-22 11:08:34 2a10:3781:472d:0:e837:1ff:fec4:8091 DNS Lookup Test
http://ikenjij.odoocloud.nl YES NO 2026-04-22 11:08:07 2a01:4f8:171:2268::541 DNS Lookup Test
http://prometheus.slxh.nl NO NO 2026-04-22 11:05:12 2a10:3781:472d:0:2035:e7ff:fec6:99fe DNS Lookup Test
http://loki.slxh.nl NO NO 2026-04-22 11:05:11 2a10:3781:472d:0:2035:e7ff:fec6:99fe DNS Lookup Test
http://influx.slxh.nl NO NO 2026-04-22 11:05:09 2a10:3781:472d:0:2035:e7ff:fec6:99fe DNS Lookup Test
http://db.slxh.nl NO NO 2026-04-22 11:05:07 2a10:3781:472d:0:2035:e7ff:fec6:99fe DNS Lookup Test
http://alertmanager.slxh.nl NO NO 2026-04-22 11:05:07 2a10:3781:472d:0:2035:e7ff:fec6:99fe DNS Lookup Test
http://www3.marbl.nlTransIP - Reserved domain
YES NO 2026-04-22 11:04:57 2a01:7c8:e100:1::50a0 DNS Lookup Test
http://vizcraft.nl NO NO 2026-04-22 11:00:43 2a03:5180:7:2:7b12:f62f:b09a:1 DNS Lookup Test
http://mail.uithandig.nl YES NO 2026-04-22 10:58:41 2a06:2ec0:1::137 DNS Lookup Test
http://dijkgraaf.johanderuijter.nl YES NO 2026-04-22 10:58:33 2a02:a450:9707:0:fa75:a4ff:fe50:6f90 DNS Lookup Test
http://saxnot.nl NO NO 2026-04-22 10:58:19 2a01:7c8:bb01:4d6:5054:ff:fed2:8495 DNS Lookup Test
http://kerberos.slxh.nl NO NO 2026-04-22 10:57:48 2a10:3781:472d:0:cf0:b7ff:fedf:7e16 DNS Lookup Test
http://ldap.slxh.nl NO NO 2026-04-22 10:57:47 2a10:3781:472d:0:cf0:b7ff:fedf:7e16 DNS Lookup Test
http://auth.slxh.nl NO NO 2026-04-22 10:57:43 2a10:3781:472d:0:cf0:b7ff:fedf:7e16 DNS Lookup Test
http://benvanallesklussen.nl NO NO 2026-04-22 10:57:19 2a03:5180:7:2:df:a952:d12e:1 DNS Lookup Test
http://johanvancaulil.nl NO NO 2026-04-22 10:54:35 2a01:448:4005::31 DNS Lookup Test
http://stayprepared.nl YES NO 2026-04-22 10:50:10 2620:127:f00f:5:: DNS Lookup Test
http://consumentenbond.kostenservice.nl YES NO 2026-04-22 10:49:03 2a00:1c98:1000:10f1:0:1:c136:972e DNS Lookup Test
http://cpanel.ruardyrecruitment.nl NO NO 2026-04-22 10:48:12 2a02:40c1:0:2:1c00:54ff:fe00:1f81 DNS Lookup Test
http://webmail.ruardyrecruitment.nl YES NO 2026-04-22 10:48:12 2a02:40c1:0:2:1c00:54ff:fe00:1f81 DNS Lookup Test
http://cpcontacts.ruardyrecruitment.nl YES NO 2026-04-22 10:48:01 2a02:40c1:0:2:1c00:54ff:fe00:1f81 DNS Lookup Test
http://ftp.weru-kozijnen.nl YES NO 2026-04-22 10:47:59 2a00:8240:7:e:4::5 DNS Lookup Test
http://nl.ipv6.internet.locohost.nl YES NO 2026-04-22 10:47:19 2a01:4f9:c014:e01d::1 DNS Lookup Test
http://www.storewebstore.nl YES NO 2026-04-22 10:47:16 2001:41d0:303:47af:6900::2906 DNS Lookup Test
http://rww.michelroelofs.nl NO NO 2026-04-22 10:47:02 2a02:a468:2f58:110:88::43 DNS Lookup Test
http://iepe.nl NO NO 2026-04-22 10:46:45 2606:50c0:8001::153, 2606:50c0:8000::153, 2606:50c0:8002::153, 2606:50c0:8003::153 DNS Lookup Test
http://z2mdash.dutchwolf.nl YES NO 2026-04-22 10:46:37 2a10:3781:192:f000::100 DNS Lookup Test
http://disao.nl YES NO 2026-04-22 10:44:58 2620:127:f00f:9:: DNS Lookup Test
YES NO 2026-04-22 10:44:11 2001:1af8:2:3:12::2002 DNS Lookup Test
http://strafberekeningtool.nl YES NO 2026-04-22 10:42:54 2a06:2ec0:1::ffed DNS Lookup Test
http://ftp.bot-kozijnen.nl YES NO 2026-04-22 10:42:17 2a00:8240:7:e:4::5 DNS Lookup Test
http://cpcontacts.needtobreath.nl YES NO 2026-04-22 10:41:02 2a00:f10:13f:0:1c00:d6ff:fe00:1b2 DNS Lookup Test
http://webdisk.needtobreath.nl YES NO 2026-04-22 10:41:00 2a00:f10:13f:0:1c00:d6ff:fe00:1b2 DNS Lookup Test
http://tel-pve-18.telco-mgmt.nl NO NO 2026-04-22 10:40:17 2a00:7c80:0:e5::10 DNS Lookup Test
http://psychedelicromance.nl YES NO 2026-04-22 10:40:16 2a06:2ec0:1::140 DNS Lookup Test
http://webmail.vantrierarchitectuur.nlRoundcube Webmail :: Welcome to Roundcube Webmail
YES NO 2026-04-22 10:33:57 2a0e:fd45:2ba0:10:188:64:138:5 DNS Lookup Test
http://ftp.botkunststofkozijnen.nl YES NO 2026-04-22 10:27:56 2a00:8240:7:e:4::5 DNS Lookup Test
http://maison-bois-massif.nl YES NO 2026-04-22 10:25:34 2001:41d0:303:47af:4800::1c22 DNS Lookup Test
http://www.maison-bois-massif.nl YES NO 2026-04-22 10:25:34 2001:41d0:303:47af:4800::1c22 DNS Lookup Test
http://deinternetconsultant.nl NO NO 2026-04-22 10:25:13 2001:41d0:303:47af:2500::e76 DNS Lookup Test
http://www.deinternetconsultant.nl YES NO 2026-04-22 10:25:13 2001:41d0:303:47af:2500::e76 DNS Lookup Test
http://www.dorpsverenigingheiliglandstichting.nl YES NO 2026-04-22 10:24:28 2a01:7c8:bb0b:3b5:5054:ff:fe29:d623 DNS Lookup Test
http://bigdaddyfrance.nl NO NO 2026-04-22 10:24:11 2001:41d0:303:47af:1080::674 DNS Lookup Test
http://www.bigdaddyfrance.nl YES NO 2026-04-22 10:24:11 2001:41d0:303:47af:1080::674 DNS Lookup Test
http://mail.goudriaanit.nl YES NO 2026-04-22 10:23:29 2a00:5140:ed04:29::1 DNS Lookup Test
http://myfitting-box.nl YES NO 2026-04-22 10:22:57 2001:41d0:303:47af:5380::20a0 DNS Lookup Test
http://www.myfitting-box.nl NO NO 2026-04-22 10:22:57 2001:41d0:303:47af:5380::20a0 DNS Lookup Test
http://janvennegoorofhesselink.nl NO NO 2026-04-22 10:21:39 2001:41d0:303:47af:3f00::189e DNS Lookup Test
http://www.janvennegoorofhesselink.nl YES NO 2026-04-22 10:21:39 2001:41d0:303:47af:3f00::189e DNS Lookup Test
http://hk47a.3721.nl NO NO 2026-04-22 10:19:42 240b:4001:278:8402:ffff:3363:125e:865d DNS Lookup Test
http://labnederland.nl YES NO 2026-04-22 10:19:22 2a05:1500:702:5:1c00:1aff:fe00:2745 DNS Lookup Test
http://h18i6.lionets.nl NO NO 2026-04-22 10:17:48 2606:4700:110:8c35:e3df:46a0:9403:1571 DNS Lookup Test
http://jasperhouweling.nl YES NO 2026-04-22 10:16:42 2a07:ae80:100:0:185:158:164:7 DNS Lookup Test
http://windtre.dyn.bgwlan.nl NO NO 2026-04-22 10:15:42 2a02:b125:8011:d1b6:557b:61df:89a8:9809 DNS Lookup Test
http://smtp.nature-galerie.nl YES NO 2026-04-22 10:13:14 2a01:4f8:1c1b:9343::1 DNS Lookup Test
http://pop.nature-galerie.nl YES NO 2026-04-22 10:13:13 2a01:4f8:1c1b:9343::1 DNS Lookup Test
http://www.waxbyla.nl YES NO 2026-04-22 10:10:13 2a01:7c8:f0:10e1:0:1:92b9:d885 DNS Lookup Test
http://www.techscalers.nl YES NO 2026-04-22 10:06:10 2a03:3c00:a002:237::1012 DNS Lookup Test
http://autodiscover.puntmorgen.nl YES NO 2026-04-22 10:04:30 2a03:3b00:1:0:700a:b7ff:fe10:4279 DNS Lookup Test
http://ftp.yenkieappelsap.nlDomeinnaam gereserveerd | mijn.host
YES NO 2026-04-22 10:02:56 2a11:4880:0:1bb4::1 DNS Lookup Test
http://smtp.yenkieappelsap.nlDomeinnaam gereserveerd | mijn.host
YES NO 2026-04-22 10:02:56 2a11:4880:0:1bb4::1 DNS Lookup Test
http://pop.yenkieappelsap.nlDomeinnaam gereserveerd | mijn.host
YES NO 2026-04-22 10:02:56 2a11:4880:0:1bb4::1 DNS Lookup Test
http://diederik.nl NO NO 2026-04-22 10:00:36 2a11:4880:0:3f31::1 DNS Lookup Test
http://banshee.ws.maxmaton.nl NO NO 2026-04-22 09:59:41 2a0c:8187:0:100::20 DNS Lookup Test
http://webmail.stpietersgilde.nlRoundcube Webmail :: Welcome to Roundcube Webmail
YES NO 2026-04-22 09:59:24 2a00:1ca8:e:2::facd:5f01 DNS Lookup Test
http://test.ikbinfo.nl NO NO 2026-04-22 09:55:58 2a01:7c8:aac6:b7:5054:ff:fe29:91de DNS Lookup Test
http://wac.i.2at.nl NO NO 2026-04-22 09:54:07 2a02:1720:2001:610:2a2::ac04, 2a02:1720:2001:610:2a2::ac03 DNS Lookup Test
http://webmail.dock.digitalfix.nl YES NO 2026-04-22 09:54:00 2a00:1ca8:e:2::facd:5f01 DNS Lookup Test
http://webmail.chikookt.nl YES NO 2026-04-22 09:52:58 2a00:1ca8:e:2::facd:5f01 DNS Lookup Test
http://webmail.bangoo.nl YES NO 2026-04-22 09:52:47 2a00:1ca8:e:2::facd:5f01 DNS Lookup Test
http://ftp.botramenendeuren.nl YES NO 2026-04-22 09:51:18 2a00:8240:7:e:4::5 DNS Lookup Test
http://homer-test.int.axeos.nl NO NO 2026-04-22 09:47:15 fdee:9608:64ee:1000::55 DNS Lookup Test
http://bergmuis.nl YES NO 2026-04-22 09:45:41 2a01:4f8:1c17:40e6::1 DNS Lookup Test
http://vaultwarden-mtls.home.bramvanmensvoort.nl NO NO 2026-04-22 09:44:10 2a0e:fdc1:1201:1000:2dda:69d9:5fad:4c12 DNS Lookup Test
http://funbloc.nl NO NO 2026-04-22 09:41:23 fd10:aec2:5dae:: DNS Lookup Test
http://mischiefs.nl YES NO 2026-04-22 09:38:32 2a0e:97c0:450:: DNS Lookup Test
http://www.mischiefs.nl YES NO 2026-04-22 09:38:32 2a0e:97c0:450:: DNS Lookup Test
http://webdisk.fnvrotterdam.nl YES NO 2026-04-22 09:37:12 2a01:7c8:aac8:594::1 DNS Lookup Test
http://pop.dizzi.nlDomeinnaam gereserveerd | mijn.host
YES NO 2026-04-22 09:36:58 2a11:4881:1:9395::1 DNS Lookup Test
http://mail.dizzi.nlDomeinnaam gereserveerd | mijn.host
YES NO 2026-04-22 09:36:56 2a11:4881:1:9395::1 DNS Lookup Test
http://ftp.dizzi.nlDomeinnaam gereserveerd | mijn.host
YES NO 2026-04-22 09:36:56 2a11:4881:1:9395::1 DNS Lookup Test
http://smtp.dizzi.nlDomeinnaam gereserveerd | mijn.host
YES NO 2026-04-22 09:36:56 2a11:4881:1:9395::1 DNS Lookup Test
http://taxiwebsitemaken.nl YES NO 2026-04-22 09:35:39 2a02:4780:3f:2124:0:2088:fdfd:10 DNS Lookup Test
http://cpcontacts.haarhuisvantongeren.nl YES NO 2026-04-22 09:35:19 2a02:cc8::102:132 DNS Lookup Test
http://mail.horeca-topper.nl YES NO 2026-04-22 09:35:15 2a06:2ec0:1::150 DNS Lookup Test
http://mail.assumotive.nl YES NO 2026-04-22 09:34:35 2a00:d880:8:1::100 DNS Lookup Test
http://smtp.assumotive.nl YES NO 2026-04-22 09:34:35 2a00:d880:8:1::100 DNS Lookup Test
http://tel-web-02.telco-mgmt.nl NO NO 2026-04-22 09:33:44 2a00:7c80:0:23a::214 DNS Lookup Test
http://dashboard.telco-mgmt.nl NO NO 2026-04-22 09:33:44 2a00:7c80:0:23a::214 DNS Lookup Test
http://www.dscdongen.nl YES NO 2026-04-22 09:31:54 2a03:3c00:a002:219::1000 DNS Lookup Test
http://dbegroep.nl YES NO 2026-04-22 09:29:49 2001:67c:b30:29bd::1 DNS Lookup Test
http://mail.kewifoto.nl YES NO 2026-04-22 09:28:09 2a01:7c8:bb03:6a::1 DNS Lookup Test
http://webmail.oud.pietersgilde.nl YES NO 2026-04-22 09:26:37 2a00:1ca8:e:2::facd:5f01 DNS Lookup Test
http://www.30secondenspel.nl YES NO 2026-04-22 09:22:35 2a01:448:4005::63 DNS Lookup Test
http://autodiscover.pinkz.nl YES NO 2026-04-22 09:20:18 2a03:3b00:1:0:700a:b7ff:fe10:4279 DNS Lookup Test
http://olympus.dcs.web01.nl NO NO 2026-04-22 09:16:22 2a02:a459:d5e3:ff00:e0d5:5e00:3d9:f30d DNS Lookup Test
http://firstgarden.nl YES NO 2026-04-22 09:16:16 2a01:7c8:aaaf:1a5::1 DNS Lookup Test
http://www.firstgarden.nl YES NO 2026-04-22 09:16:16 2a01:7c8:aaaf:1a5::1 DNS Lookup Test
http://webmail.exportbruidjes.nl NO NO 2026-04-22 09:15:38 2a10:92c0:1:0:5::21 DNS Lookup Test
http://cpanel.exportbruidjes.nl NO NO 2026-04-22 09:15:38 2a10:92c0:1:0:5::21 DNS Lookup Test
http://v6.lawende.nl NO NO 2026-04-22 09:15:05 2a01:4f8:1c1c:81f1::1 DNS Lookup Test
http://tvleeuwen.nl NO NO 2026-04-22 09:14:32 2a03:5180:7:2:4d11:4326:7a69:1 DNS Lookup Test
http://lg.man.mcpal.nl NO NO 2026-04-22 09:11:39 2a0f:b240:7701::1 DNS Lookup Test
http://mach3shop.nl YES NO 2026-04-22 09:11:37 2a03:9700:8000::7:79 DNS Lookup Test
http://fotobetalen.nlWeb Server's Default Page
YES NO 2026-04-22 09:11:10 2a00:19c0:a070:4::1 DNS Lookup Test
http://vinkso.nlDomeinnaam gereserveerd | mijn.host
YES NO 2026-04-22 09:09:21 2a03:5180:7:2:f264:726d:beae:1 DNS Lookup Test
http://tdarr.csteennis.nl NO NO 2026-04-22 09:08:43 fd7a:115c:a1e0::55d7:ae39 DNS Lookup Test
http://pop.tmnp.nlDomeinnaam gereserveerd | mijn.host
YES NO 2026-04-22 09:07:17 2a03:5180:7:2:219:6d05:ac86:1 DNS Lookup Test
http://ftp.tmnp.nlDomeinnaam gereserveerd | mijn.host
YES NO 2026-04-22 09:07:16 2a03:5180:7:2:219:6d05:ac86:1 DNS Lookup Test
http://smtp.tmnp.nlDomeinnaam gereserveerd | mijn.host
YES NO 2026-04-22 09:07:16 2a03:5180:7:2:219:6d05:ac86:1 DNS Lookup Test
http://www.tmnp.nl NO NO 2026-04-22 09:07:16 2a03:5180:7:2:219:6d05:ac86:1 DNS Lookup Test
http://bpsports.nl YES NO 2026-04-22 09:06:18 2a00:9b60:0:4:1c00:b3ff:fe00:11ca DNS Lookup Test
http://www.bpsports.nl YES NO 2026-04-22 09:06:18 2a00:9b60:0:4:1c00:b3ff:fe00:11ca DNS Lookup Test
http://www.psymagazine.nl YES NO 2026-04-22 09:05:43 2001:4860:4802:32::15 DNS Lookup Test
http://lely.com.dev.thevalley.nl NO NO 2026-04-22 09:04:00 2a00:cc0:11:1300::54 DNS Lookup Test
http://ml.netsense.nl YES NO 2026-04-22 08:59:09 2a10:3781:18cd:1:2:3:4:12 DNS Lookup Test
http://www.admin.wizzert.nl YES NO 2026-04-22 08:58:38 2a03:3c00:a002:a41f::1 DNS Lookup Test
http://asb3.netsense.nl YES NO 2026-04-22 08:58:20 2a10:3781:18cd:1:2:3:4:225 DNS Lookup Test
http://mail.gootlek.nl YES NO 2026-04-22 08:57:44 2a00:f10:305:0:1c00:eff:fe00:4fc DNS Lookup Test
http://mozeskriebels.nl YES NO 2026-04-22 08:56:39 2a01:448:1004::33 DNS Lookup Test
http://pop.soundvisionevents.nlDomeinnaam gereserveerd | mijn.host
YES NO 2026-04-22 08:55:50 2a11:4881:1:cff9::1 DNS Lookup Test
http://smtp.soundvisionevents.nlDomeinnaam gereserveerd | mijn.host
YES NO 2026-04-22 08:55:50 2a11:4881:1:cff9::1 DNS Lookup Test
http://ftp.soundvisionevents.nlDomeinnaam gereserveerd | mijn.host
YES NO 2026-04-22 08:55:50 2a11:4881:1:cff9::1 DNS Lookup Test
http://dijkshoornbleiswijk.nl YES NO 2026-04-22 08:55:00 2a0e:7280:0:189:135:777:0:1 DNS Lookup Test
http://barberehab.nlBarber Ehab Hengelo - De Beste Barbier voor Heren
YES NO 2026-04-22 08:52:19 2a06:2ec0:1::132 DNS Lookup Test
http://smtp.djgroningen.nlDomeinnaam gereserveerd | mijn.host
YES NO 2026-04-22 08:51:43 2a11:4881:1:cff9::1 DNS Lookup Test
http://ftp.djgroningen.nlDomeinnaam gereserveerd | mijn.host
YES NO 2026-04-22 08:51:43 2a11:4881:1:cff9::1 DNS Lookup Test
http://pop.djgroningen.nlDomeinnaam gereserveerd | mijn.host
YES NO 2026-04-22 08:51:43 2a11:4881:1:cff9::1 DNS Lookup Test
http://ip6.acato.nl YES NO 2026-04-22 08:51:19 2a03:9700:8000::8220 DNS Lookup Test
http://todo.jebentdik.nl NO NO 2026-04-22 08:49:57 2a0d:6e00:1a1b:2:be24:11ff:fe0b:a9c7 DNS Lookup Test
http://www.spora.nlDomeinnaam is gereserveerd.
YES NO 2026-04-22 08:49:48 2a01:4d60:3:1::100 DNS Lookup Test
http://www6.michelroelofs.nl YES NO 2026-04-22 08:49:22 2a02:a468:2f58:110:88::43 DNS Lookup Test
http://kasazneta.nl NO NO 2026-04-22 08:46:33 2a01:448:1005::101 DNS Lookup Test
http://webmail.dworkingsmarthands.nl YES NO 2026-04-22 08:46:05 2a01:7c8:bb0c:4bc:5054:ff:fea2:c989 DNS Lookup Test
http://welkom.fietslabyrint.nl YES NO 2026-04-22 08:45:45 2a07:ae80:100:0:185:158:167:164 DNS Lookup Test
http://pop.fietslabyrint.nl YES NO 2026-04-22 08:45:45 2a07:ae80:100:0:185:158:167:164 DNS Lookup Test
http://mail.fietslabyrint.nl YES NO 2026-04-22 08:45:45 2a07:ae80:100:0:185:158:167:164 DNS Lookup Test
http://smtp.fietslabyrint.nl YES NO 2026-04-22 08:45:45 2a07:ae80:100:0:185:158:167:164 DNS Lookup Test
http://jjbbv.nl YES NO 2026-04-22 08:44:33 2a01:7c8:bb0b:3ad:5054:ff:fe81:e070 DNS Lookup Test
http://en.ipv6.internet.locohost.nl NO NO 2026-04-22 08:43:23 2a01:4f9:c014:e01d::1 DNS Lookup Test
http://smtp.home.bramvanmensvoort.nl NO NO 2026-04-22 08:43:17 2a0e:fdc1:1201:1000:2dda:69d9:5fad:4c12 DNS Lookup Test
http://imap.home.bramvanmensvoort.nl NO NO 2026-04-22 08:43:15 2a0e:fdc1:1201:1000:2dda:69d9:5fad:4c12 DNS Lookup Test
http://lidarr.home.bramvanmensvoort.nl NO NO 2026-04-22 08:43:13 2a0e:fdc1:1201:1000:2dda:69d9:5fad:4c12 DNS Lookup Test
http://qbittorrent.home.bramvanmensvoort.nl NO NO 2026-04-22 08:43:11 2a0e:fdc1:1201:1000:2dda:69d9:5fad:4c12 DNS Lookup Test
http://immich.home.bramvanmensvoort.nl NO NO 2026-04-22 08:43:03 2a0e:fdc1:1201:1000:2dda:69d9:5fad:4c12 DNS Lookup Test
http://ftp.botrd.nl YES NO 2026-04-22 08:40:42 2a00:8240:7:e:4::5 DNS Lookup Test
http://oex3.oost.dapadam.nl NO NO 2026-04-22 08:40:40 2a03:10c3:1141:24::c DNS Lookup Test
http://mail.pourvousgoirle.nl YES NO 2026-04-22 08:39:43 2a04:a240:0:32::1 DNS Lookup Test
http://mail.lotrijk.nl NO NO 2026-04-22 08:39:01 2a06:2ec0:1::154 DNS Lookup Test
http://www.cbconsilium.nlWeb Server's Default Page
YES NO 2026-04-22 08:37:23 2a01:448:2001::42 DNS Lookup Test
http://mail.zingendeobers.nl YES NO 2026-04-22 08:37:04 2a09:8b00:300:1::10 DNS Lookup Test
http://www.huizedegraaf.nl YES NO 2026-04-22 08:36:27 2a10:3781:5613:42::42 DNS Lookup Test
http://ralifashion.nl NO NO 2026-04-22 08:36:20 2001:8d8:100f:f000::200 DNS Lookup Test
http://api.story-tellers.nl NO NO 2026-04-22 08:35:48 2a01:7c8:f0:1082:0:1:4399:3799 DNS Lookup Test
http://ftp.amriaco.nl YES NO 2026-04-22 08:35:44 2a0b:7280:100:0:415:4ff:fe00:2077 DNS Lookup Test
http://mail.spooxs.nl YES NO 2026-04-22 08:34:20 2001:7b8:618:a:213:154:231:201 DNS Lookup Test
http://demo-gr2026.merci24.nl YES NO 2026-04-22 08:33:19 2a03:3c00:a002:182::1008 DNS Lookup Test
http://xpwalk.nl NO NO 2026-04-22 08:31:59 fd10:aec2:5dae:: DNS Lookup Test
http://deglasblazers.nl YES NO 2026-04-22 08:30:25 2a00:1938:0:1::5 DNS Lookup Test
YES NO 2026-04-22 08:28:58 2a11:4880:0:d3e3::1 DNS Lookup Test
YES NO 2026-04-22 08:28:48 2a00:f10:305:0:1c00:2eff:fe00:4b4 DNS Lookup Test
http://6only.ip6.nl YES NO 2026-04-22 08:28:02 2a01:4f8:c010:a08c::1 DNS Lookup Test
http://smtp.nq-solutions.nl YES NO 2026-04-22 08:27:48 2a0b:7280:300:0:1c00:20ff:fe00:277c DNS Lookup Test
http://librenms.openworx.nl YES NO 2026-04-22 08:26:38 2a01:4f8:171:2268::5002 DNS Lookup Test
http://woondeck.nl NO NO 2026-04-22 08:24:51 :: DNS Lookup Test
http://www.bouwenmetpassie.nl YES NO 2026-04-22 08:24:21 2a01:448:1004::44 DNS Lookup Test
http://proxmox.nextbit.nl NO NO 2026-04-22 08:22:12 2001:1c00:3c88:8800::12 DNS Lookup Test
http://proxmox6.nextbit.nl NO NO 2026-04-22 08:22:12 2001:1c00:3c88:8800::12 DNS Lookup Test
http://thuis.jeroensmit.nl NO NO 2026-04-22 08:21:33 2a02:2c60:f137:6990:9209:d0ff:fe05:4181 DNS Lookup Test
http://mail.wouterduijns.nl YES NO 2026-04-22 08:21:18 2a03:3b00:1:0:700a:b7ff:fe10:1286 DNS Lookup Test
http://wouterduijns.nl YES NO 2026-04-22 08:21:18 2a03:3b00:1:0:700a:b7ff:fe10:1286 DNS Lookup Test
http://smtp.kan.elektroprefab.nl YES NO 2026-04-22 08:17:58 2a06:2ec0:ded1:1:0:6:3000:2 DNS Lookup Test
http://rtp-a.int.axeos.nl NO NO 2026-04-22 08:17:34 fdee:9608:64ee::1000:36 DNS Lookup Test
http://mx.it-works4u.nl YES NO 2026-04-22 08:17:29 2001:41d0:701:1100::5413 DNS Lookup Test
http://foresterinvest.nlforesterinvest.nl
YES NO 2026-04-22 08:16:59 2a06:2ec0:1::118 DNS Lookup Test
http://rembergh.nl YES NO 2026-04-22 08:16:33 2a03:3c00:a002:167::1001 DNS Lookup Test
http://tel-pve-26.telco-mgmt.nl NO NO 2026-04-22 08:15:15 2a00:7c80:0:1c2::10 DNS Lookup Test
http://api.hg.eu.dev.thevalley.nl YES NO 2026-04-22 08:14:52 2a00:cc0:11:1300::4 DNS Lookup Test
http://greenportequipment.nl YES NO 2026-04-22 08:13:59 2a00:1c98:1000:1232:0:3:2583:eb39 DNS Lookup Test
http://staging-websoc-a.int.axeos.nl NO NO 2026-04-22 08:13:33 fdee:9608:64ee:1000::12 DNS Lookup Test
http://www.vroaar.nl NO NO 2026-04-22 08:13:27 2a03:5180:7:2:defb:4ed3:f1b:1 DNS Lookup Test
http://tel-pve-19.telco-mgmt.nl NO NO 2026-04-22 08:12:58 2001:41d0:203:5b2b::10 DNS Lookup Test
http://mail.bruiloftmartensaskia.nlDeze domeinnaam is geregistreerd door een klant van DigiWorks
YES NO 2026-04-22 08:12:50 2a0b:f380:3e8::29d DNS Lookup Test
http://mail.administratiekantoorgroningen.nlDomeinnaam gereserveerd | mijn.host
YES NO 2026-04-22 08:12:48 2a03:5180:7:2:219:6d05:ac86:1 DNS Lookup Test
http://photos.lynq.nl YES NO 2026-04-22 08:11:41 2a05:1500:100:1::20 DNS Lookup Test
http://drive.lynq.nl YES NO 2026-04-22 08:11:41 2a05:1500:100:1::20 DNS Lookup Test
http://tel-nbx-01.telco-mgmt.nl NO NO 2026-04-22 08:09:04 2a00:7c80:0:23a::210 DNS Lookup Test
http://v6.thuisip.nl YES NO 2026-04-22 08:07:27 2a01:4f8:140:82eb::2, 2a01:4f8:272:2d48::2 DNS Lookup Test
http://toybox.mijnbubbel.nl NO NO 2026-04-22 08:06:32 2a02:f6d:2862:bb:7408:e9ff:fe5c:331 DNS Lookup Test
http://cpanel.mettamoves.nl YES NO 2026-04-22 08:06:30 2a00:f10:305:0:1c00:5dff:fe00:4ae DNS Lookup Test
http://hk47b.3721.nlWelcome to nginx!
YES NO 2026-04-22 08:03:46 240b:4001:278:8403:0:19c6:a3bd:74a9 DNS Lookup Test
http://autodiscover.bunkerpictures.nl YES NO 2026-04-22 08:03:33 2a03:3b00:1:0:700a:b7ff:fe10:4279 DNS Lookup Test
http://homeassistant.oog45.nl NO NO 2026-04-22 08:02:55 2a0d:6e00:135:0:6e2e:3c25:503a:cd DNS Lookup Test
http://buitenlevenxxl.nl NO NO 2026-04-22 08:01:42 fe80::f816:3eff:fed7:9b3d DNS Lookup Test
http://azimullah.nlTransIP - Reserved domain
YES NO 2026-04-22 08:00:54 2a01:7c8:e100:1::50a0 DNS Lookup Test
http://mx2.weirdnet.nl YES NO 2026-04-22 07:59:51 2a02:898:28::1 DNS Lookup Test
http://dekasstoor.nl YES NO 2026-04-22 07:58:47 2a01:7c8:aac6:3db:5054:ff:fedb:48a7 DNS Lookup Test
http://mail.wegooo.nlWeb Server's Default Page
YES NO 2026-04-22 07:57:49 2a01:239:336:3100::1 DNS Lookup Test
http://websys.groenestein-ts.nl YES NO 2026-04-22 07:56:45 2a03:3b00:1:0:700a:b7ff:fe10:5910 DNS Lookup Test
http://penguin.ricardopersoon.nl NO NO 2026-04-22 07:56:44 2a00:1630:10:1003:0:1003:0:1 DNS Lookup Test
http://smtp.exclusive-carcare.nl YES NO 2026-04-22 07:55:03 2a00:cc20:1:57a3::1 DNS Lookup Test
YES NO 2026-04-22 07:55:00 2a02:2350:5:106:8083:6c78:4a06:3dab DNS Lookup Test
http://www.dev.mywalkincloset.nl YES NO 2026-04-22 07:53:10 2a03:3c00:a002:197::1000 DNS Lookup Test
http://wp.mywalkincloset.nl YES NO 2026-04-22 07:53:07 2a03:3c00:a002:197::1000 DNS Lookup Test
http://voskamp-1.cust.cj2.nl NO NO 2026-04-22 07:52:59 :: DNS Lookup Test
http://www.systeembouwalkmaar.nl YES NO 2026-04-22 07:52:13 2a01:448:4005::49 DNS Lookup Test
http://pop.ceylon-remedies.nl YES NO 2026-04-22 07:51:50 2620:127:f00f:5:: DNS Lookup Test
http://smtp.ceylon-remedies.nl YES NO 2026-04-22 07:51:50 2620:127:f00f:5:: DNS Lookup Test
http://ftp.ceylon-remedies.nl YES NO 2026-04-22 07:51:50 2620:127:f00f:5:: DNS Lookup Test
http://mail.ceylon-remedies.nl YES NO 2026-04-22 07:51:50 2620:127:f00f:5:: DNS Lookup Test
http://www.lemnis-oreon.nl YES NO 2026-04-22 07:46:49 2a02:ac40:0:1:0:fe08:c204:b085 DNS Lookup Test
http://wbcbv.nlTransIP - Reserved domain
YES NO 2026-04-22 07:46:33 2a01:7c8:3:1337::27 DNS Lookup Test
http://www.iphonerepairfrance.nl YES NO 2026-04-22 07:46:25 2001:41d0:303:47af:3e00::183a DNS Lookup Test
http://iphonerepairfrance.nl YES NO 2026-04-22 07:46:09 2001:41d0:303:47af:3e00::183a DNS Lookup Test
http://internal-api.anva6-dataplane-p1a.aws.anva.nl NO NO 2026-04-22 07:43:27 2a05:d014:b48:aa05:e55a:994d:c150:3e3e, 2a05:d014:b48:aa06:b04d:6a51:9fb2:849d, 2a05:d014:b48:aa04:9074:384a:b9a2:774e DNS Lookup Test
http://mail.geraci-engineering.nlDeze domeinnaam is geregistreerd door een klant van DigiWorks
YES NO 2026-04-22 07:42:54 2a0b:f380:3e8::29d DNS Lookup Test
http://internal-api.anva6-dataplane-p2a.aws.anva.nl NO NO 2026-04-22 07:42:47 2a05:d014:1f3a:4404:202b:c8be:d22d:9b9e, 2a05:d014:1f3a:4405:17c9:8b5f:c08:6ff9, 2a05:d014:1f3a:4406:7e55:231a:6955:cdf6 DNS Lookup Test
http://internal-api.anva6-dataplane-p1c.aws.anva.nl NO NO 2026-04-22 07:42:47 2a05:d014:1b4f:3205:ac1:aa5:4cdd:eb3, 2a05:d014:1b4f:3204:fb59:8c8e:c9cf:e564, 2a05:d014:1b4f:3206:6e1e:45f5:618f:2361 DNS Lookup Test
http://internal-api.anva6-dataplane-p1b.aws.anva.nl NO NO 2026-04-22 07:42:44 2a05:d014:74a:7c04:29d2:d6e1:a694:b2ec, 2a05:d014:74a:7c05:f537:19d5:ef51:9a58, 2a05:d014:74a:7c06:2f11:344:7fc6:b1e6 DNS Lookup Test
http://internal-api.anva6-controlplane.aws.anva.nl NO NO 2026-04-22 07:42:32 2a05:d014:b56:a004:4fd5:fe1:34a3:2cda, 2a05:d014:b56:a005:a322:f0b4:36cd:be3b, 2a05:d014:b56:a006:d4ca:32d9:f3de:10ff DNS Lookup Test
http://mail.bloemenbijheleen.nl YES NO 2026-04-22 07:41:13 2a06:2ec0:1::160 DNS Lookup Test
http://southwestseven.nl NO NO 2026-04-22 07:40:18 2a01:7c8:eb:0:95:170:72:194 DNS Lookup Test
http://pop.tpdc.nlWebhost Company
YES NO 2026-04-22 07:39:32 2a03:5180:7:3:e790:5510:cc39:1 DNS Lookup Test
http://ftp.tpdc.nlWebhost Company
YES NO 2026-04-22 07:39:22 2a03:5180:7:3:e790:5510:cc39:1 DNS Lookup Test
http://www.go-host.nl YES NO 2026-04-22 07:39:19 2a06:2ec0:1::162 DNS Lookup Test
http://betuwe.k-11.nl NO NO 2026-04-22 07:38:40 2a02:a46a:46f:0:222:15ff:fe5f:3e88 DNS Lookup Test
http://smtp.leisurebusiness.nl YES NO 2026-04-22 07:37:43 2a03:38a0:63:66::1 DNS Lookup Test
YES NO 2026-04-22 07:35:53 2a00:1bd0:0:107::5bc0:24d0 DNS Lookup Test
http://ramenworks.nlTransIP - Reserved domain
YES NO 2026-04-22 07:35:03 2a01:7c8:3:1337::27 DNS Lookup Test
http://ja03.3721.nlWelcome to nginx!
YES NO 2026-04-22 07:35:00 240b:4009:25a:1801:ffff:d0e7:85d9:3932 DNS Lookup Test
http://internal-api.anva6-controlplane-acceptance.aws.anva.nl NO NO 2026-04-22 07:33:58 2a05:d014:1a07:8b04:375d:f84d:2bbd:e1cf, 2a05:d014:1a07:8b05:25e0:60d4:74f2:44d2, 2a05:d014:1a07:8b06:33b5:7577:7f59:f137 DNS Lookup Test
http://autodiscover.vanderbijstukadoors.nl YES NO 2026-04-22 07:33:41 2a03:3b00:1:0:700a:b7ff:fe10:1286 DNS Lookup Test
http://farm2024.codesk.nl NO NO 2026-04-22 07:33:04 2a03:7900:108:202:10:2:127:1 DNS Lookup Test
http://nl.ipv6.batch.internet.nl YES NO 2026-04-22 07:32:23 2a00:d00:ff:162:62:204:66:12 DNS Lookup Test
http://www.laserlab.lalalaserstudio.nl YES NO 2026-04-22 07:29:35 2a03:3c00:a002:245::1000 DNS Lookup Test
http://kievitautomation.nl NO NO 2026-04-22 07:29:15 2a02:a459:573d:2:8c30:c04:2712:b75a DNS Lookup Test
http://www.audiomastering.nlTransIP - Reserved domain
YES NO 2026-04-22 07:28:16 2a01:7c8:3:1337::27 DNS Lookup Test
http://icinga.stroeveict.nl NO NO 2026-04-22 07:24:34 2a02:a46a:c58b:1::86 DNS Lookup Test
http://npm.seaborz.nlDomeinnaam gereserveerd | mijn.host
YES NO 2026-04-22 07:24:25 2a03:5180:7:2:84ba:82f4:da86:1 DNS Lookup Test
http://autodiscover.rijschoolraymon.nl YES NO 2026-04-22 07:24:00 2a03:3b00:1:0:700a:b7ff:fe10:20ec DNS Lookup Test
http://staging.trechter.nl YES NO 2026-04-22 07:22:40 2a00:a0c0:3::1b0 DNS Lookup Test
http://hemina.paulmaakthet.nl YES NO 2026-04-22 07:18:42 2a01:448:2001::10 DNS Lookup Test
http://homeassistant.martijnotto.nl NO NO 2026-04-22 07:12:46 2a10:3781:2681:0:4d2d:4c99:47d:e0f8 DNS Lookup Test
http://www.thevaluechain.nl YES NO 2026-04-22 07:09:07 2a00:1c98:1000:1282:0:3:807a:21f7 DNS Lookup Test
http://thevaluechain.nl YES NO 2026-04-22 07:09:07 2a00:1c98:1000:1282:0:3:807a:21f7 DNS Lookup Test
http://vps-sligro.digitalebazen.nl YES NO 2026-04-22 07:09:01 2a11:4881:1:54b8::1 DNS Lookup Test
http://mazdamiata.nl YES NO 2026-04-22 07:07:47 2a02:4780:27:1089:0:1949:133b:4 DNS Lookup Test
http://www.ikverkoopmijneigenhuis.nl YES NO 2026-04-22 07:05:20 2a01:7c8:d010:40:5054:ff:fe1d:3da0 DNS Lookup Test
http://internal-api.anva6-controlplane-test.aws.anva.nl NO NO 2026-04-22 07:04:55 2a05:d014:107a:f505:b7ef:1c0e:5f23:a089, 2a05:d014:107a:f504:b2f4:ac1d:7781:45b, 2a05:d014:107a:f506:c572:6f3e:24f9:72b7 DNS Lookup Test
http://pop.reservistenlandmacht.nlDomeinnaam gereserveerd | mijn.host
YES NO 2026-04-22 07:00:50 2a11:4880:0:e44e::1 DNS Lookup Test
http://ftp.reservistenlandmacht.nlDomeinnaam gereserveerd | mijn.host
YES NO 2026-04-22 07:00:50 2a11:4880:0:e44e::1 DNS Lookup Test
http://smtp.reservistenlandmacht.nlDomeinnaam gereserveerd | mijn.host
YES NO 2026-04-22 07:00:50 2a11:4880:0:e44e::1 DNS Lookup Test
http://internal-api.anva6-controlplane-development.aws.anva.nl NO NO 2026-04-22 06:58:01 2a05:d014:12ca:9e04:93d6:59a5:3eaf:be95, 2a05:d014:12ca:9e05:810f:f41d:b126:f05e, 2a05:d014:12ca:9e06:7e84:c29d:f49e:692b DNS Lookup Test
http://cpcontacts.ceessmakelijk.nl YES NO 2026-04-22 06:55:10 2a03:3b00:1:0:700a:b7ff:fe10:3b2f DNS Lookup Test
http://cpanel.ceessmakelijk.nl YES NO 2026-04-22 06:55:10 2a03:3b00:1:0:700a:b7ff:fe10:3b2f DNS Lookup Test
http://autodiscover.ceessmakelijk.nl YES NO 2026-04-22 06:55:10 2a03:3b00:1:0:700a:b7ff:fe10:3b2f DNS Lookup Test
http://cpcalendars.ceessmakelijk.nl YES NO 2026-04-22 06:55:09 2a03:3b00:1:0:700a:b7ff:fe10:3b2f DNS Lookup Test
http://webdisk.ceessmakelijk.nl YES NO 2026-04-22 06:55:09 2a03:3b00:1:0:700a:b7ff:fe10:3b2f DNS Lookup Test
http://webmail.ceessmakelijk.nl YES NO 2026-04-22 06:55:08 2a03:3b00:1:0:700a:b7ff:fe10:3b2f DNS Lookup Test
http://internal-api.landingzone-sandbox.aws.anva.nl NO NO 2026-04-22 06:53:38 2a05:d014:1f1e:b604:1de3:b23f:229b:6f3a, 2a05:d014:1f1e:b605:b6b6:46ca:9901:3e58, 2a05:d014:1f1e:b606:c195:847b:48ac:e2a3 DNS Lookup Test
http://adequad.nl YES NO 2026-04-22 06:53:21 2001:41d0:303:47af:500::1f6 DNS Lookup Test
http://www.adequad.nl YES NO 2026-04-22 06:53:21 2001:41d0:303:47af:500::1f6 DNS Lookup Test
http://demo.zapcatering.nl NO NO 2026-04-22 06:51:39 2001:bc8:711:24f9:dc00:ff:feea:d609 DNS Lookup Test
http://mail.gloriakraamzorg.nl YES NO 2026-04-22 06:50:16 2a02:cc8::99:51 DNS Lookup Test
http://tickets.bitlair.nl NO NO 2026-04-22 06:49:57 2a05:2d01:0:4042:5054:ff:fe13:3705 DNS Lookup Test
http://www.ek2012.scandor.nl YES NO 2026-04-22 06:49:55 2a03:3c00:a002:204::1000 DNS Lookup Test
http://ek2012.scandor.nl YES NO 2026-04-22 06:49:54 2a03:3c00:a002:204::1000 DNS Lookup Test
http://maathof-holding.nl YES NO 2026-04-22 06:49:25 2a03:3b00:1:0:700a:b7ff:fe10:169f DNS Lookup Test
http://radarr.ws.maxmaton.nl YES NO 2026-04-22 06:49:24 2a0c:8187:0:100::113 DNS Lookup Test
http://valeouwezorgprofessional.nl YES NO 2026-04-22 06:48:32 2a00:1450:400e:80c::2013 DNS Lookup Test
http://autodiscover.digistudio.nl YES NO 2026-04-22 06:47:52 2a03:3b00:1:0:700a:b7ff:fe10:6750 DNS Lookup Test
http://www.solou.nl YES NO 2026-04-22 06:47:20 2a01:448:2001::10 DNS Lookup Test
http://fresu.nl NO NO 2026-04-22 06:47:16 :: DNS Lookup Test
http://www.instagram.rotterdambynight.nl YES NO 2026-04-22 06:46:40 2a10:7180:100:0:185:133:88:7 DNS Lookup Test
http://calibre.wk3r.nl NO NO 2026-04-22 06:43:57 fdb3:a42e:2e35:17:aaa1:59ff:fe58:3 DNS Lookup Test
http://www.pietovergoor.nl NO NO 2026-04-22 06:40:59 2a02:40c0:1:2:7:0:d:ecaf DNS Lookup Test
http://thevalley.nl.dev.thevalley.nl YES NO 2026-04-22 06:39:45 2a00:cc0:11:1300::35 DNS Lookup Test
http://cpcalendars.delloptiplex.nl YES NO 2026-04-22 06:39:40 2a10:92c0:1:0:5::21 DNS Lookup Test
http://mantelzorg.nl.dev.thevalley.nl YES NO 2026-04-22 06:39:30 2a00:cc0:11:1300::13 DNS Lookup Test
http://mail.computerspeciaal.nl YES NO 2026-04-22 06:39:08 2a06:2ec0:1::100 DNS Lookup Test
http://glafootball.com.dev.thevalley.nl NO NO 2026-04-22 06:38:56 2a00:cc0:11:1300::43 DNS Lookup Test
http://mail.birol-c-consultancy.nlDeze domeinnaam is geregistreerd door een klant van DigiWorks
YES NO 2026-04-22 06:36:40 2a0b:f380:3e8::29d DNS Lookup Test
http://cpanel.feanbei4.nl YES NO 2026-04-22 06:36:01 2a00:f10:13f:0:1c00:1dff:fe00:192 DNS Lookup Test
http://docker.riccza.nl NO NO 2026-04-22 06:35:45 2001:67c:918:2b0:80::80 DNS Lookup Test
http://router.heisislan.nl NO NO 2026-04-22 06:34:58 2a02:908:1a00:7::3cf5 DNS Lookup Test
http://vorderingdirect.nl NO NO 2026-04-22 06:34:27 2a02:2268:1:0:f816:3eff:fe7b:63c6 DNS Lookup Test
http://netbox.noahlvb.nl NO NO 2026-04-22 06:34:14 2a0e:7180:aaaa:2824:be24:11ff:feca:b29d DNS Lookup Test
http://ftp.vroaar.nlDomeinnaam gereserveerd | mijn.host
YES NO 2026-04-22 06:33:23 2a03:5180:7:2:defb:4ed3:f1b:1 DNS Lookup Test
http://pop.vroaar.nlDomeinnaam gereserveerd | mijn.host
YES NO 2026-04-22 06:33:23 2a03:5180:7:2:defb:4ed3:f1b:1 DNS Lookup Test
http://smtp.vroaar.nlDomeinnaam gereserveerd | mijn.host
YES NO 2026-04-22 06:33:23 2a03:5180:7:2:defb:4ed3:f1b:1 DNS Lookup Test
http://mail.vroaar.nlDomeinnaam gereserveerd | mijn.host
YES NO 2026-04-22 06:33:23 2a03:5180:7:2:defb:4ed3:f1b:1 DNS Lookup Test
http://nginx.rarewereld.nlnginx.rarewereld.nl
YES NO 2026-04-22 06:32:51 2a06:2ec0:1::144 DNS Lookup Test
http://ha.jeveda.nl NO NO 2026-04-22 06:31:01 2001:1c00:9c00:501:3f41:dbc:e604:ccf DNS Lookup Test
http://www.nieuwe-subdomein.dit-is-een-pointer-domeintje.antagonist-proberen.nl YES NO 2026-04-22 06:28:42 2a03:3c00:a002:165::1000 DNS Lookup Test
http://dit-is-een-pointer-domeintje.antagonist-proberen.nl YES NO 2026-04-22 06:28:40 2a03:3c00:a002:165::1000 DNS Lookup Test
http://www.dit-is-een-pointer-domeintje.antagonist-proberen.nl YES NO 2026-04-22 06:28:40 2a03:3c00:a002:165::1000 DNS Lookup Test
http://swingin-shoes.nl YES NO 2026-04-22 06:28:16 2001:41d0:a:438b:ac00::4332 DNS Lookup Test
http://www.swingin-shoes.nl YES NO 2026-04-22 06:28:16 2001:41d0:a:438b:ac00::4332 DNS Lookup Test
http://oops-humor.nl NO NO 2026-04-22 06:27:48 2001:41d0:a:438b:8900::3586 DNS Lookup Test
http://www.oops-humor.nl NO NO 2026-04-22 06:27:48 2001:41d0:a:438b:8900::3586 DNS Lookup Test
http://staging.dugu.nl YES NO 2026-04-22 06:26:36 2a01:7c8:aac0:1e:5054:ff:fe02:bf50 DNS Lookup Test
http://webmail.snevelbokkenland.nl YES NO 2026-04-22 06:23:52 2a03:3b00:1:0:700a:b7ff:fe10:5beb DNS Lookup Test
http://cpcontacts.snevelbokkenland.nl YES NO 2026-04-22 06:23:52 2a03:3b00:1:0:700a:b7ff:fe10:5beb DNS Lookup Test
http://webdisk.snevelbokkenland.nl YES NO 2026-04-22 06:23:52 2a03:3b00:1:0:700a:b7ff:fe10:5beb DNS Lookup Test
http://cpanel.snevelbokkenland.nl YES NO 2026-04-22 06:23:52 2a03:3b00:1:0:700a:b7ff:fe10:5beb DNS Lookup Test
http://cpcalendars.snevelbokkenland.nl YES NO 2026-04-22 06:23:52 2a03:3b00:1:0:700a:b7ff:fe10:5beb DNS Lookup Test
http://webmail.christianeubaghs.nl YES NO 2026-04-22 06:22:40 2a00:1ca8:e:2::facd:5f01 DNS Lookup Test
http://webdisk.circlair.nl YES NO 2026-04-22 06:21:56 2a03:3b00:1:0:700a:b7ff:fe10:5beb DNS Lookup Test
http://webdisk.codegurus.nl YES NO 2026-04-22 06:21:56 2a03:3b00:1:0:700a:b7ff:fe10:5beb DNS Lookup Test
http://webmail.circlair.nl YES NO 2026-04-22 06:21:56 2a03:3b00:1:0:700a:b7ff:fe10:5beb DNS Lookup Test
http://cpcontacts.circlair.nl YES NO 2026-04-22 06:21:56 2a03:3b00:1:0:700a:b7ff:fe10:5beb DNS Lookup Test
http://cpcalendars.codegurus.nl YES NO 2026-04-22 06:21:56 2a03:3b00:1:0:700a:b7ff:fe10:5beb DNS Lookup Test
http://cpcontacts.codegurus.nl YES NO 2026-04-22 06:21:55 2a03:3b00:1:0:700a:b7ff:fe10:5beb DNS Lookup Test
http://cpanel.codegurus.nl YES NO 2026-04-22 06:21:55 2a03:3b00:1:0:700a:b7ff:fe10:5beb DNS Lookup Test
http://webmail.codegurus.nl YES NO 2026-04-22 06:21:55 2a03:3b00:1:0:700a:b7ff:fe10:5beb DNS Lookup Test
http://cpanel.circlair.nl YES NO 2026-04-22 06:21:55 2a03:3b00:1:0:700a:b7ff:fe10:5beb DNS Lookup Test
http://cpcalendars.circlair.nl YES NO 2026-04-22 06:21:55 2a03:3b00:1:0:700a:b7ff:fe10:5beb DNS Lookup Test
http://webmail.pasmancoaching.nl YES NO 2026-04-22 06:21:39 2a03:3b00:1:0:700a:b7ff:fe10:5beb DNS Lookup Test
http://webdisk.pasmancoaching.nl YES NO 2026-04-22 06:21:39 2a03:3b00:1:0:700a:b7ff:fe10:5beb DNS Lookup Test
http://cpanel.pasmancoaching.nl YES NO 2026-04-22 06:21:37 2a03:3b00:1:0:700a:b7ff:fe10:5beb DNS Lookup Test
http://cpcalendars.coachopdrachten.nl YES NO 2026-04-22 06:21:37 2a03:3b00:1:0:700a:b7ff:fe10:5beb DNS Lookup Test
http://cpcontacts.pasmancoaching.nl YES NO 2026-04-22 06:21:37 2a03:3b00:1:0:700a:b7ff:fe10:5beb DNS Lookup Test
http://cpcontacts.coachopdrachten.nl YES NO 2026-04-22 06:21:37 2a03:3b00:1:0:700a:b7ff:fe10:5beb DNS Lookup Test
http://cpanel.coachopdrachten.nl YES NO 2026-04-22 06:21:37 2a03:3b00:1:0:700a:b7ff:fe10:5beb DNS Lookup Test
http://webdisk.coachopdrachten.nl YES NO 2026-04-22 06:21:37 2a03:3b00:1:0:700a:b7ff:fe10:5beb DNS Lookup Test
http://webmail.coachopdrachten.nl YES NO 2026-04-22 06:21:37 2a03:3b00:1:0:700a:b7ff:fe10:5beb DNS Lookup Test
http://cpcalendars.pasmancoaching.nl YES NO 2026-04-22 06:21:36 2a03:3b00:1:0:700a:b7ff:fe10:5beb DNS Lookup Test
http://webdisk.close2it.nl YES NO 2026-04-22 06:21:01 2a03:3b00:1:0:700a:b7ff:fe10:5beb DNS Lookup Test
http://cpcontacts.close2it.nl YES NO 2026-04-22 06:21:01 2a03:3b00:1:0:700a:b7ff:fe10:5beb DNS Lookup Test
http://webmail.close2it.nl YES NO 2026-04-22 06:21:01 2a03:3b00:1:0:700a:b7ff:fe10:5beb DNS Lookup Test
http://cpanel.close2it.nl YES NO 2026-04-22 06:21:01 2a03:3b00:1:0:700a:b7ff:fe10:5beb DNS Lookup Test
http://cpcalendars.close2it.nl YES NO 2026-04-22 06:21:01 2a03:3b00:1:0:700a:b7ff:fe10:5beb DNS Lookup Test
http://int.fossilfreak.nl NO NO 2026-04-22 06:20:56 fd7a:115c:a1e0:ab12:4843:cd96:626a:2f46 DNS Lookup Test
http://cpcalendars.clez.nl YES NO 2026-04-22 06:19:49 2a03:3b00:1:0:700a:b7ff:fe10:5beb DNS Lookup Test
http://webdisk.clez.nl YES NO 2026-04-22 06:19:49 2a03:3b00:1:0:700a:b7ff:fe10:5beb DNS Lookup Test
http://cpanel.clez.nl YES NO 2026-04-22 06:19:49 2a03:3b00:1:0:700a:b7ff:fe10:5beb DNS Lookup Test
http://cpcontacts.clez.nl YES NO 2026-04-22 06:19:49 2a03:3b00:1:0:700a:b7ff:fe10:5beb DNS Lookup Test
http://webmail.clez.nl YES NO 2026-04-22 06:19:49 2a03:3b00:1:0:700a:b7ff:fe10:5beb DNS Lookup Test
http://cpcalendars.chauffeurscafebolsward.nl YES NO 2026-04-22 06:19:01 2a03:3b00:1:0:700a:b7ff:fe10:5beb DNS Lookup Test
http://webdisk.chauffeurscafebolsward.nl YES NO 2026-04-22 06:19:01 2a03:3b00:1:0:700a:b7ff:fe10:5beb DNS Lookup Test
http://cpcontacts.chauffeurscafebolsward.nl YES NO 2026-04-22 06:19:01 2a03:3b00:1:0:700a:b7ff:fe10:5beb DNS Lookup Test
http://cpanel.chauffeurscafebolsward.nl YES NO 2026-04-22 06:19:01 2a03:3b00:1:0:700a:b7ff:fe10:5beb DNS Lookup Test
http://webmail.chauffeurscafebolsward.nl YES NO 2026-04-22 06:19:01 2a03:3b00:1:0:700a:b7ff:fe10:5beb DNS Lookup Test
http://cpcontacts.charlottes-bakery.nl YES NO 2026-04-22 06:18:45 2a03:3b00:1:0:700a:b7ff:fe10:5beb DNS Lookup Test
http://webmail.charlottes-bakery.nl YES NO 2026-04-22 06:18:45 2a03:3b00:1:0:700a:b7ff:fe10:5beb DNS Lookup Test
http://cpcalendars.charlottes-bakery.nl YES NO 2026-04-22 06:18:45 2a03:3b00:1:0:700a:b7ff:fe10:5beb DNS Lookup Test
http://cpanel.charlottes-bakery.nl YES NO 2026-04-22 06:18:45 2a03:3b00:1:0:700a:b7ff:fe10:5beb DNS Lookup Test
http://webdisk.charlottes-bakery.nl YES NO 2026-04-22 06:18:45 2a03:3b00:1:0:700a:b7ff:fe10:5beb DNS Lookup Test
http://cpcalendars.ceremoniehuis.nl YES NO 2026-04-22 06:18:15 2a03:3b00:1:0:700a:b7ff:fe10:5beb DNS Lookup Test
http://cpanel.ceremoniehuis.nl YES NO 2026-04-22 06:18:12 2a03:3b00:1:0:700a:b7ff:fe10:5beb DNS Lookup Test
http://webdisk.ceremoniehuis.nl YES NO 2026-04-22 06:18:12 2a03:3b00:1:0:700a:b7ff:fe10:5beb DNS Lookup Test
http://cpcontacts.ceremoniehuis.nl YES NO 2026-04-22 06:18:12 2a03:3b00:1:0:700a:b7ff:fe10:5beb DNS Lookup Test
http://preview.story-tellers.nl YES NO 2026-04-22 06:12:58 2a01:7c8:f0:1082:0:1:4399:eaae DNS Lookup Test
http://webmail.barbearshop.nl YES NO 2026-04-22 06:12:49 2a03:3b00:1:0:700a:b7ff:fe10:5beb DNS Lookup Test
http://cpcontacts.barbearshop.nl YES NO 2026-04-22 06:12:49 2a03:3b00:1:0:700a:b7ff:fe10:5beb DNS Lookup Test
http://webdisk.barbearshop.nl YES NO 2026-04-22 06:12:49 2a03:3b00:1:0:700a:b7ff:fe10:5beb DNS Lookup Test
http://cpcalendars.barbearshop.nl YES NO 2026-04-22 06:12:49 2a03:3b00:1:0:700a:b7ff:fe10:5beb DNS Lookup Test
http://demo.claimz.nl YES NO 2026-04-22 06:10:00 2a01:7c8:bb0e:6b::2 DNS Lookup Test
http://cpcalendars.aanmelddienst.nl YES NO 2026-04-22 06:09:29 2a03:3b00:1:0:700a:b7ff:fe10:5beb DNS Lookup Test
http://webmail.aanmelddienst.nl YES NO 2026-04-22 06:09:29 2a03:3b00:1:0:700a:b7ff:fe10:5beb DNS Lookup Test
http://webdisk.aanmelddienst.nl YES NO 2026-04-22 06:09:29 2a03:3b00:1:0:700a:b7ff:fe10:5beb DNS Lookup Test
http://cpcontacts.aanmelddienst.nl YES NO 2026-04-22 06:09:29 2a03:3b00:1:0:700a:b7ff:fe10:5beb DNS Lookup Test
http://cpanel.aanmelddienst.nl YES NO 2026-04-22 06:09:29 2a03:3b00:1:0:700a:b7ff:fe10:5beb DNS Lookup Test
http://caleidoscoop.bestregeltechniek.nl YES NO 2026-04-22 06:08:31 2a06:2ec0:1::102 DNS Lookup Test
http://xs4cloud.nl NO NO 2026-04-22 06:07:01 2a03:7900:580:0:185:119:30:90 DNS Lookup Test
http://fotoalbum.kroontevelde.nl YES NO 2026-04-22 06:04:58 2a03:3c00:a002:164::1013 DNS Lookup Test
http://www.fotoalbum.kroontevelde.nl YES NO 2026-04-22 06:04:58 2a03:3c00:a002:164::1013 DNS Lookup Test
http://ts.meln.nl NO NO 2026-04-22 06:03:56 fd7a:115c:a1e0::1a01:1916 DNS Lookup Test
http://portainer.ts.meln.nl NO NO 2026-04-22 06:03:47 fd7a:115c:a1e0::1a01:1916 DNS Lookup Test
http://dashboard.ts.meln.nl NO NO 2026-04-22 06:03:41 fd7a:115c:a1e0::1a01:1916 DNS Lookup Test
http://edge.ts.meln.nl NO NO 2026-04-22 06:03:37 fd7a:115c:a1e0::1a01:1916 DNS Lookup Test
http://tank-04.velnon.nl NO NO 2026-04-22 06:03:26 2a10:3781:213d:3002::50 DNS Lookup Test
http://homeserver.azizov.nl NO NO 2026-04-22 06:02:38 fe80::186f:eece:436c:528d DNS Lookup Test
http://bbs.janssenliu.nl NO NO 2026-04-22 06:00:19 2a02:a44b:91f6::10 DNS Lookup Test
http://smtp.bibianart.nl YES NO 2026-04-22 05:57:36 2a05:1500:702:3:1c00:eff:fe00:1447 DNS Lookup Test
http://pop.bibianart.nl YES NO 2026-04-22 05:57:36 2a05:1500:702:3:1c00:eff:fe00:1447 DNS Lookup Test
http://dev.xldata.nl NO NO 2026-04-22 05:55:47 fde9:251d:bedb:6d3a::1 DNS Lookup Test
http://res.xldata.nl NO NO 2026-04-22 05:55:47 fde9:251d:bedb:6d3a::1 DNS Lookup Test
http://webmail.airsoftbase.nl YES NO 2026-04-22 05:54:23 2a01:238:4392:3800:1c9:2aaf:66a5:e8ea DNS Lookup Test
http://pop.sitellasconsulting.nlDomeinnaam gereserveerd | mijn.host
YES NO 2026-04-22 05:54:03 2a11:4880:0:3f31::1 DNS Lookup Test
http://ftp.sitellasconsulting.nlDomeinnaam gereserveerd | mijn.host
YES NO 2026-04-22 05:54:03 2a11:4880:0:3f31::1 DNS Lookup Test
http://smtp.sitellasconsulting.nlDomeinnaam gereserveerd | mijn.host
YES NO 2026-04-22 05:54:02 2a11:4880:0:3f31::1 DNS Lookup Test
http://ha.mm.maxmaton.nl NO NO 2026-04-22 05:53:43 2a02:22a0:eee4:c300::fafa DNS Lookup Test
YES NO 2026-04-22 05:52:20 2a0d:3341:b9ca:ba00:211:32ff:fed8:773a DNS Lookup Test
YES NO 2026-04-22 05:52:20 2a0d:3341:b9ca:ba00:211:32ff:fed8:773a DNS Lookup Test
http://heimdall.seaborz.nlDomeinnaam gereserveerd | mijn.host
YES NO 2026-04-22 05:52:20 2a03:5180:7:2:84ba:82f4:da86:1 DNS Lookup Test
http://webmail.hetveiligedak.nl YES NO 2026-04-22 05:51:51 2a01:7c8:fff8:112::1 DNS Lookup Test
http://webmail.hellmannconsultancy.nl YES NO 2026-04-22 05:51:51 2a01:7c8:fff8:112::1 DNS Lookup Test
http://webmail.pulltry.nl YES NO 2026-04-22 05:51:42 2a01:7c8:fff8:112::1 DNS Lookup Test
http://freya22.nl NO NO 2026-04-22 05:51:28 2001:1c01:45dd:6100:289c:527c:8375:5b3a DNS Lookup Test
http://www.freya22.nl NO NO 2026-04-22 05:51:28 2001:1c01:45dd:6100:289c:527c:8375:5b3a DNS Lookup Test
http://cpanel.tilburgwaterval.nl YES NO 2026-04-22 05:51:18 2a03:3b00:1:0:700a:b7ff:fe10:4516 DNS Lookup Test
http://webdisk.tilburgwaterval.nl YES NO 2026-04-22 05:51:18 2a03:3b00:1:0:700a:b7ff:fe10:4516 DNS Lookup Test
http://webmail.tilburgwaterval.nl YES NO 2026-04-22 05:51:18 2a03:3b00:1:0:700a:b7ff:fe10:4516 DNS Lookup Test
http://cpcontacts.tilburgwaterval.nl YES NO 2026-04-22 05:51:18 2a03:3b00:1:0:700a:b7ff:fe10:4516 DNS Lookup Test
http://cpcalendars.tilburgwaterval.nl YES NO 2026-04-22 05:51:18 2a03:3b00:1:0:700a:b7ff:fe10:4516 DNS Lookup Test
http://mail.dpgbv.nlServer w5.webhostingprovider.nu
YES NO 2026-04-22 05:48:24 2a01:4f9:c012:f418:1::1 DNS Lookup Test
http://webmail.paulinevanburingen-art.nl YES NO 2026-04-22 05:47:20 2001:4018:1100:7::108 DNS Lookup Test
http://webmail.spookgrot.nl YES NO 2026-04-22 05:47:20 2001:4018:1100:7::108 DNS Lookup Test
http://webmail.ervaarenleer.nl YES NO 2026-04-22 05:47:20 2001:4018:1100:7::108 DNS Lookup Test
http://new.attenzagroep.nl YES NO 2026-04-22 05:47:02 2a03:3c00:a002:237::1000 DNS Lookup Test
http://new.werkenbijattenza.nl YES NO 2026-04-22 05:47:02 2a03:3c00:a002:237::1000 DNS Lookup Test
http://new.attenza.nl YES NO 2026-04-22 05:46:57 2a03:3c00:a002:237::1000 DNS Lookup Test
http://tel-pve-23.telco-mgmt.nl NO NO 2026-04-22 05:46:40 2001:41d0:203:a619::10 DNS Lookup Test
http://www.annedi.nl YES NO 2026-04-22 05:44:14 2a02:2350:5:10f:80e2:3002:c6b:5a88 DNS Lookup Test
http://srv6.brodgar.nl YES NO 2026-04-22 05:42:53 2001:bc8:1600:2:208:a2ff:fe0c:8efa DNS Lookup Test
http://tel-git-01.telco-mgmt.nl YES NO 2026-04-22 05:42:05 2a00:7c80:0:23a::207 DNS Lookup Test
http://irc2.ds0.nl NO NO 2026-04-22 05:40:41 2001:67c:6bc:22::69 DNS Lookup Test
http://cpxcms.nl YES NO 2026-04-22 05:40:11 2a02:4780:41:534c::1 DNS Lookup Test
http://www.dickhoffontwikkelt.nl YES NO 2026-04-22 05:38:50 2a03:3c00:a002:180::100d DNS Lookup Test
http://meinleiter.nl YES NO 2026-04-22 05:37:47 2001:41d0:303:47af:4f80::1f10 DNS Lookup Test
http://www.meinleiter.nl YES NO 2026-04-22 05:37:47 2001:41d0:303:47af:4f80::1f10 DNS Lookup Test
http://api.tbakema.nl NO NO 2026-04-22 05:36:51 2a01:7c8:bb01:1f4:5054:ff:fe1a:a983 DNS Lookup Test
http://porkypi.nl NO NO 2026-04-22 05:36:01 fd10:aec2:5dae:: DNS Lookup Test
http://www.media.deankappen.nl YES NO 2026-04-22 05:35:38 2a03:3c00:a002:238::1000 DNS Lookup Test
http://staging.provideopleidingen.nl YES NO 2026-04-22 05:35:26 2a03:5180:7:2::1:0 DNS Lookup Test
http://www.gebruikteentresolvloer.nl YES NO 2026-04-22 05:34:34 2001:9a8:0:121::139:164 DNS Lookup Test
http://www.barneveldmachines.nl YES NO 2026-04-22 05:33:19 2620:127:f00f:5:: DNS Lookup Test
http://www.aantgoor.nlOnze website komt binnenkort
YES NO 2026-04-22 05:32:38 2a05:1500:702:5:1c00:eaff:fe00:26c7 DNS Lookup Test
http://www.turningpages.anno.nl YES NO 2026-04-22 05:32:10 2001:1af8:4100:a029:3::1 DNS Lookup Test
http://exact.thevalley.nl NO NO 2026-04-22 05:31:49 2a00:cc0:11:1610::2 DNS Lookup Test
http://pop.allsaints-afrikahouse.nlDomeinnaam gereserveerd | mijn.host
YES NO 2026-04-22 05:30:35 2a11:4881:1:cff9::1 DNS Lookup Test
http://ftp.allsaints-afrikahouse.nlDomeinnaam gereserveerd | mijn.host
YES NO 2026-04-22 05:30:35 2a11:4881:1:cff9::1 DNS Lookup Test
http://smtp.allsaints-afrikahouse.nlDomeinnaam gereserveerd | mijn.host
YES NO 2026-04-22 05:30:34 2a11:4881:1:cff9::1 DNS Lookup Test
http://webmail.cercodesign.nl NO NO 2026-04-22 05:30:15 2a01:448:1004::43 DNS Lookup Test
http://mail.basecode.nl YES NO 2026-04-22 05:28:27 2a01:7c8:bb0a:520:5054:ff:fe9d:3741 DNS Lookup Test
http://homeassistant.heteigenwijsje.nl NO NO 2026-04-22 05:27:31 2a03:10c3:578:1::183 DNS Lookup Test
http://spassivhaus.nl YES NO 2026-04-22 05:26:38 2001:41d0:303:47af:6680::280c DNS Lookup Test
http://www.spassivhaus.nl YES NO 2026-04-22 05:26:38 2001:41d0:303:47af:6680::280c DNS Lookup Test
http://mail.regalboatsmarine.nl YES NO 2026-04-22 05:26:24 2a04:a240:0:32::1 DNS Lookup Test
http://projects.architectsonamission.nl NO NO 2026-04-22 05:25:57 2a03:3c00:a002:135::1000 DNS Lookup Test
http://cms.advido.nl YES NO 2026-04-22 05:24:10 2a00:f10:13f:0:1c00:5dff:fe00:15d DNS Lookup Test
http://vockingfabulous.nl YES NO 2026-04-22 05:24:04 2a01:448:2001::45 DNS Lookup Test
http://www.coesconsultants.nl YES NO 2026-04-22 05:22:51 2a04:52c0:130:8eb5::10 DNS Lookup Test
http://mail.kampsdewild.nl YES NO 2026-04-22 05:21:55 2a03:9700:8000::5:226 DNS Lookup Test
http://cortenraadautos.nl YES NO 2026-04-22 05:21:18 2a01:448:2001::10 DNS Lookup Test
http://marco.digistate.nl NO NO 2026-04-22 05:20:42 2a01:4d60:3:1:81::4 DNS Lookup Test
http://mail.karweigoirle.nl YES NO 2026-04-22 05:20:31 2a04:a240:0:31::1 DNS Lookup Test
http://en.flowkit.nl YES NO 2026-04-22 05:18:58 2a01:448:2001::10 DNS Lookup Test
http://ovada.srvr03.nl YES NO 2026-04-22 05:16:35 2a06:2ec0:1::165 DNS Lookup Test
http://safesafira.nl NO NO 2026-04-22 05:15:49 :: DNS Lookup Test
http://kamerlinginstallaties.nl YES NO 2026-04-22 05:15:35 2a02:4780:84::32 DNS Lookup Test
http://www.kamerlinginstallaties.nl YES NO 2026-04-22 05:15:35 2a02:4780:84::32 DNS Lookup Test
http://hv1.bitob.mgmt.colo.bit.nl NO NO 2026-04-22 05:13:31 2001:7b8:617:802::11 DNS Lookup Test
http://stellingopkoper.nlTransIP - Reserved domain
YES NO 2026-04-22 05:12:58 2a01:7c8:3:1337::27 DNS Lookup Test
http://shop.intelica.nlshop.intelica.nl
YES NO 2026-04-22 05:12:43 2a03:5180:7:3:a53:54ad:2491:1 DNS Lookup Test
http://www.vtplantentuin.nl YES NO 2026-04-22 05:12:24 2620:127:f00f:5:: DNS Lookup Test
http://mail.denachtzusters.nl YES NO 2026-04-22 05:11:17 2a06:2ec0:1::154 DNS Lookup Test
http://mail.frema.nl YES NO 2026-04-22 05:10:29 2a01:7c8:aac6:406::1 DNS Lookup Test
http://mve.blocked.omnibits.nl YES NO 2026-04-22 05:09:22 2a06:2ec0:1::85 DNS Lookup Test
http://snipe-it.ontdekkers.nl NO NO 2026-04-22 05:07:47 ::1 DNS Lookup Test
http://ats-nl.twenty.ats-nl.nl YES NO 2026-04-22 05:05:01 2a01:7c8:e100:1::50a0 DNS Lookup Test
http://irminisme.nl YES NO 2026-04-22 05:04:20 2a00:1450:400e:80f::2003 DNS Lookup Test
http://ictarts.nlICT voor Apotheek en Huisarts - Home
YES NO 2026-04-22 05:03:24 2a01:7c8:bb0b:682:5054:ff:fe21:78b6 DNS Lookup Test
http://automatiseringapotheek.nl NO NO 2026-04-22 05:03:24 2a01:7c8:bb0b:682:5054:ff:fe21:78b6 DNS Lookup Test
http://icthuisarts.nl NO NO 2026-04-22 05:03:24 2a01:7c8:bb0b:682:5054:ff:fe21:78b6 DNS Lookup Test
http://app.twenty.ats-nl.nl YES NO 2026-04-22 05:02:41 2a01:7c8:e100:1::50a0 DNS Lookup Test
http://decommanderie.nl YES NO 2026-04-22 04:58:41 2001:1aa8:0:118::10 DNS Lookup Test
http://mail.steunzolenspecialist.nl YES NO 2026-04-22 04:58:35 2a04:a240:0:32::1 DNS Lookup Test
http://ftp.bwwz.nl YES NO 2026-04-22 04:57:53 2a0b:7280:100:0:4dd:42ff:fe00:20af DNS Lookup Test
http://www.dns13.nl YES NO 2026-04-22 04:55:47 2a02:cc8::102:130 DNS Lookup Test
YES NO 2026-04-22 04:51:42 2a03:5180:7:2:219:6d05:ac86:1 DNS Lookup Test
http://mijngemeente.vrnhn.nl YES NO 2026-04-22 04:50:02 2a01:7c8:bb02:1cf:5054:ff:fe5c:360d DNS Lookup Test
http://zwierhosting.nl YES NO 2026-04-22 04:46:21 2a03:5180:7:2:defb:4ed3:f1b:1 DNS Lookup Test
http://mc.jaydg.nl NO NO 2026-04-22 04:46:00 2001:41d0:700:3e73::c001:b10c DNS Lookup Test
YES NO 2026-04-22 04:45:11 2a11:4881:1:c3a8::1 DNS Lookup Test
http://kamailio-test.int.axeos.nl NO NO 2026-04-22 04:43:30 fdee:9608:64ee:1000::63 DNS Lookup Test
http://dns.rubium.nl NO NO 2026-04-22 04:43:09 2a02:a44a:a0f0:1:54:57d9:8136:6e7e DNS Lookup Test
http://archive.laankerk.nl YES NO 2026-04-22 04:40:45 2a00:f10:305:0:1c00:12ff:fe00:4ed DNS Lookup Test
http://test.laankerk.nl NO NO 2026-04-22 04:39:25 2a00:f10:305:0:1c00:12ff:fe00:4ed DNS Lookup Test
http://speedculture.nl NO NO 2026-04-22 04:39:24 ::1 DNS Lookup Test
http://webmail.bokd.nl YES NO 2026-04-22 04:38:42 2a03:3c00:a001:24::11 DNS Lookup Test
http://www.webmail.bokd.nl NO NO 2026-04-22 04:38:42 2a03:3c00:a001:24::11 DNS Lookup Test
http://mail.jagdhausberwangerhof.nlDeze domeinnaam is geregistreerd door een klant van DigiWorks
YES NO 2026-04-22 04:38:30 2a0b:f380:3e8::271 DNS Lookup Test
http://tectanet1.odoocloud.nl YES NO 2026-04-22 04:36:30 2a01:4f8:2200:2be6::924 DNS Lookup Test
http://protecbetonvloeren.nl YES NO 2026-04-22 04:35:31 2a03:5180:7:2:134c:b74c:3ef1:1 DNS Lookup Test
http://www.los-x.nl YES NO 2026-04-22 04:34:39 2a06:2ec0:1::169 DNS Lookup Test
http://mail.missbeanie.nl YES NO 2026-04-22 04:33:10 2a06:2ec0:1::142 DNS Lookup Test
http://webdisk.puurbymariska.nl YES NO 2026-04-22 04:31:41 2a02:cc8::102:132 DNS Lookup Test
http://audiomastering.nlTransIP - Reserved domain
YES NO 2026-04-22 04:30:23 2a01:7c8:3:1337::27 DNS Lookup Test
http://reports.pcextreme.nl NO NO 2026-04-22 04:27:59 2a00:f10:101:0:1c00:4eff:fe00:82 DNS Lookup Test
http://ip6.nickdekruijk.nl NO NO 2026-04-22 04:27:53 2a02:348:81:ca51::1 DNS Lookup Test
http://autodiscover.hettheater.nl YES NO 2026-04-22 04:26:59 2a03:3b00:1:0:700a:b7ff:fe10:4279 DNS Lookup Test
http://webdisk.beneman.nl YES NO 2026-04-22 04:26:42 2a02:40c1:0:8:1c00:2bff:fe00:2fa4 DNS Lookup Test
http://tool.whoopah.nl YES NO 2026-04-22 04:26:29 2a03:3c00:a002:180::1000 DNS Lookup Test
http://slidebar.whoopah.nl YES NO 2026-04-22 04:26:29 2a03:3c00:a002:180::1000 DNS Lookup Test
http://cpcontacts.beneman.nl YES NO 2026-04-22 04:26:17 2a02:40c1:0:8:1c00:2bff:fe00:2fa4 DNS Lookup Test
http://h15i6.lionets.nl YES NO 2026-04-22 04:25:02 2a03:b0c0:3:f0:0:1:c648:9000 DNS Lookup Test
http://jeroen.twenty.ats-nl.nl YES NO 2026-04-22 04:23:42 2a01:7c8:e100:1::50a0 DNS Lookup Test
http://test.thetravelnetwork.nl YES NO 2026-04-22 04:23:36 2a01:7c8:f0:1172:0:2:4e10:bf18 DNS Lookup Test
http://www.test.thetravelnetwork.nl YES NO 2026-04-22 04:23:36 2a01:7c8:f0:1172:0:2:4e10:bf18 DNS Lookup Test
http://bane6.netsend.nl NO NO 2026-04-22 04:23:35 2001:41f0:955a:1::117 DNS Lookup Test
http://www.dev.pixelware.nl YES NO 2026-04-22 04:22:42 2a01:7c8:aac8:85:5054:ff:fe02:93c2 DNS Lookup Test
http://verkoop.twenty.ats-nl.nl YES NO 2026-04-22 04:22:08 2a01:7c8:e100:1::50a0 DNS Lookup Test
http://mail.tazzmania.nlWeb Server's Default Page
YES NO 2026-04-22 04:21:56 2a01:238:4357:f900:8e29:ef2c:7b5b:b67a DNS Lookup Test
http://joopdev.nl NO NO 2026-04-22 04:21:55 ::1 DNS Lookup Test
http://mail.linfo365.nl YES NO 2026-04-22 04:19:56 2a04:a240:0:32::1 DNS Lookup Test